Observation data for Odell on 11/08/2019      Previous  Date       Current Mesonet Observations  Soil Data  Daily Summary Page  Observations in Plain Language
KOD1 080600Z 00008KT 03/M04 A3049 RMK A01 T00331040  RH  059%=      5-min Rain = 0
KOD1 080601Z 01009KT 03/M04 A3049 RMK A01 T00331041  RH  059%=      5-min Rain = 0
KOD1 080602Z 01008KT 03/M04 A3049 RMK A01 T00331042  RH  058%=      5-min Rain = 0
KOD1 080603Z 01008KT 03/M04 A3049 RMK A01 T00331041  RH  058%=      5-min Rain = 0
KOD1 080604Z 00008KT 03/M04 A3049 RMK A01 T00331041  RH  059%=      5-min Rain = 0
KOD1 080605Z 00008KT 03/M04 A3049 RMK A01 T00331041  RH  058%=      5-min Rain = 0
KOD1 080606Z 00007KT 03/M04 A3049 RMK A01 T00331041  RH  059%=      5-min Rain = 0
KOD1 080607Z 00008KT 03/M04 A3049 RMK A01 T00331041  RH  058%=      5-min Rain = 0
KOD1 080608Z 00007KT 03/M04 A3049 RMK A01 T00331042  RH  058%=      5-min Rain = 0
KOD1 080609Z 00006KT 03/M04 A3049 RMK A01 T00331040  RH  059%=      5-min Rain = 0
KOD1 080610Z 00006KT 03/M04 A3049 RMK A01 T00331039  RH  059%=      5-min Rain = 0
KOD1 080611Z 00007KT 03/M04 A3049 RMK A01 T00331040  RH  059%=      5-min Rain = 0
KOD1 080612Z 00005KT 03/M04 A3049 RMK A01 T00331041  RH  058%=      5-min Rain = 0
KOD1 080613Z 36006KT 03/M04 A3049 RMK A01 T00331038  RH  060%=      5-min Rain = 0
KOD1 080614Z 36006KT 03/M04 A3049 RMK A01 T00331039  RH  059%=      5-min Rain = 0
KOD1 080615Z 00006KT 03/M04 A3049 RMK A01 T00331039  RH  059%=      5-min Rain = 0
KOD1 080616Z 00007KT 03/M04 A3049 RMK A01 T00331038  RH  060%=      5-min Rain = 0
KOD1 080617Z 00008KT 03/M04 A3049 RMK A01 T00321040  RH  059%=      5-min Rain = 0
KOD1 080618Z 00007KT 03/M04 A3049 RMK A01 T00321041  RH  058%=      5-min Rain = 0
KOD1 080619Z 00007KT 03/M04 A3049 RMK A01 T00321042  RH  058%=      5-min Rain = 0
KOD1 080620Z 36007KT 03/M04 A3049 RMK A01 T00331043  RH  058%=      5-min Rain = 0
KOD1 080621Z 36008KT 03/M04 A3049 RMK A01 T00321042  RH  058%=      5-min Rain = 0
KOD1 080622Z 36007KT 03/M04 A3048 RMK A01 T00321042  RH  058%=      5-min Rain = 0
KOD1 080623Z 36007KT 03/M04 A3048 RMK A01 T00321042  RH  058%=      5-min Rain = 0
KOD1 080624Z 00008KT 03/M04 A3049 RMK A01 T00321043  RH  058%=      5-min Rain = 0
KOD1 080625Z 36007KT 03/M04 A3049 RMK A01 T00321042  RH  059%=      5-min Rain = 0
KOD1 080626Z 36007KT 03/M04 A3049 RMK A01 T00321042  RH  058%=      5-min Rain = 0
KOD1 080627Z 35008KT 03/M04 A3049 RMK A01 T00321043  RH  058%=      5-min Rain = 0
KOD1 080628Z 35007KT 03/M04 A3049 RMK A01 T00321043  RH  058%=      5-min Rain = 0
KOD1 080629Z 36008KT 03/M04 A3049 RMK A01 T00321042  RH  058%=      5-min Rain = 0
KOD1 080630Z 36007KT 03/M04 A3049 RMK A01 T00321043  RH  058%=      5-min Rain = 0
KOD1 080631Z 35007KT 03/M04 A3049 RMK A01 T00321042  RH  058%=      5-min Rain = 0
KOD1 080632Z 36006KT 03/M04 A3049 RMK A01 T00321041  RH  059%=      5-min Rain = 0
KOD1 080633Z 36006KT 03/M04 A3049 RMK A01 T00321039  RH  060%=      5-min Rain = 0
KOD1 080634Z 36006KT 03/M04 A3049 RMK A01 T00321040  RH  059%=      5-min Rain = 0
KOD1 080635Z 36007KT 03/M04 A3049 RMK A01 T00321039  RH  060%=      5-min Rain = 0
KOD1 080636Z 35007KT 03/M04 A3049 RMK A01 T00321041  RH  059%=      5-min Rain = 0
KOD1 080637Z 00006KT 03/M04 A3049 RMK A01 T00321042  RH  058%=      5-min Rain = 0
KOD1 080638Z 36006KT 03/M04 A3049 RMK A01 T00321043  RH  058%=      5-min Rain = 0
KOD1 080639Z 36005KT 03/M04 A3049 RMK A01 T00321041  RH  059%=      5-min Rain = 0
KOD1 080640Z 36005KT 03/M04 A3049 RMK A01 T00321039  RH  060%=      5-min Rain = 0
KOD1 080641Z 35006KT 03/M04 A3049 RMK A01 T00321038  RH  060%=      5-min Rain = 0
KOD1 080642Z 35006KT 03/M04 A3049 RMK A01 T00321040  RH  059%=      5-min Rain = 0
KOD1 080643Z 35006KT 03/M04 A3049 RMK A01 T00321040  RH  059%=      5-min Rain = 0
KOD1 080644Z 35006KT 03/M04 A3049 RMK A01 T00321038  RH  060%=      5-min Rain = 0
KOD1 080645Z 36006KT 03/M04 A3049 RMK A01 T00311041  RH  059%=      5-min Rain = 0
KOD1 080646Z 35006KT 03/M04 A3049 RMK A01 T00311042  RH  059%=      5-min Rain = 0
KOD1 080647Z 35005KT 03/M04 A3048 RMK A01 T00311041  RH  059%=      5-min Rain = 0
KOD1 080648Z 36005KT 03/M04 A3048 RMK A01 T00311039  RH  060%=      5-min Rain = 0
KOD1 080649Z 35006KT 03/M04 A3048 RMK A01 T00311040  RH  060%=      5-min Rain = 0
KOD1 080650Z 35006KT 03/M04 A3049 RMK A01 T00311040  RH  060%=      5-min Rain = 0
KOD1 080651Z 35005KT 03/M04 A3049 RMK A01 T00311038  RH  061%=      5-min Rain = 0
KOD1 080652Z 35005KT 03/M04 A3049 RMK A01 T00311038  RH  061%=      5-min Rain = 0
KOD1 080653Z 35006KT 03/M04 A3049 RMK A01 T00301039  RH  061%=      5-min Rain = 0
KOD1 080654Z 36006KT 03/M04 A3049 RMK A01 T00301040  RH  060%=      5-min Rain = 0
KOD1 080655Z 36005KT 03/M04 A3048 RMK A01 T00301040  RH  060%=      5-min Rain = 0
KOD1 080656Z 00006KT 03/M04 A3048 RMK A01 T00301040  RH  060%=      5-min Rain = 0
KOD1 080657Z 00006KT 03/M04 A3048 RMK A01 T00301040  RH  060%=      5-min Rain = 0
KOD1 080658Z 00005KT 03/M04 A3048 RMK A01 T00291039  RH  061%=      5-min Rain = 0
KOD1 080659Z 00006KT 03/M04 A3048 RMK A01 T00291038  RH  061%=      5-min Rain = 0
KOD1 080700Z 00006KT 03/M04 A3048 RMK A01 T00291039  RH  061%=      5-min Rain = 0
KOD1 080701Z 01006KT 03/M04 A3048 RMK A01 T00291041  RH  060%=      5-min Rain = 0
KOD1 080702Z 36006KT 03/M04 A3048 RMK A01 T00291039  RH  061%=      5-min Rain = 0
KOD1 080703Z 36005KT 03/M04 A3048 RMK A01 T00291039  RH  061%=      5-min Rain = 0
KOD1 080704Z 36006KT 03/M04 A3048 RMK A01 T00291037  RH  062%=      5-min Rain = 0
KOD1 080705Z 35006KT 03/M04 A3048 RMK A01 T00291039  RH  061%=      5-min Rain = 0
KOD1 080706Z 36005KT 03/M04 A3048 RMK A01 T00291039  RH  061%=      5-min Rain = 0
KOD1 080707Z 00005KT 03/M04 A3048 RMK A01 T00291039  RH  061%=      5-min Rain = 0
KOD1 080708Z 00006KT 03/M04 A3048 RMK A01 T00291037  RH  062%=      5-min Rain = 0
KOD1 080709Z 00006KT 03/M04 A3048 RMK A01 T00291039  RH  061%=      5-min Rain = 0
KOD1 080710Z 36005KT 03/M04 A3048 RMK A01 T00291039  RH  061%=      5-min Rain = 0
KOD1 080711Z 36006KT 03/M04 A3048 RMK A01 T00291038  RH  061%=      5-min Rain = 0
KOD1 080712Z 36006KT 03/M04 A3048 RMK A01 T00291037  RH  062%=      5-min Rain = 0
KOD1 080713Z 00005KT 03/M04 A3048 RMK A01 T00291039  RH  061%=      5-min Rain = 0
KOD1 080714Z 00006KT 03/M04 A3048 RMK A01 T00291037  RH  062%=      5-min Rain = 0
KOD1 080715Z 00006KT 03/M04 A3048 RMK A01 T00291038  RH  061%=      5-min Rain = 0
KOD1 080716Z 00005KT 03/M04 A3048 RMK A01 T00291038  RH  061%=      5-min Rain = 0
KOD1 080717Z 00005KT 03/M04 A3048 RMK A01 T00291036  RH  062%=      5-min Rain = 0
KOD1 080718Z 00005KT 03/M04 A3048 RMK A01 T00291036  RH  062%=      5-min Rain = 0
KOD1 080719Z 00005KT 03/M04 A3048 RMK A01 T00291036  RH  062%=      5-min Rain = 0
KOD1 080720Z 01005KT 03/M04 A3048 RMK A01 T00291037  RH  062%=      5-min Rain = 0
KOD1 080721Z 00005KT 03/M04 A3048 RMK A01 T00291037  RH  062%=      5-min Rain = 0
KOD1 080722Z 00005KT 03/M04 A3048 RMK A01 T00291036  RH  062%=      5-min Rain = 0
KOD1 080723Z 36005KT 03/M04 A3048 RMK A01 T00291037  RH  062%=      5-min Rain = 0
KOD1 080724Z 00005KT 03/M04 A3048 RMK A01 T00291037  RH  062%=      5-min Rain = 0
KOD1 080725Z 00005KT 03/M04 A3048 RMK A01 T00291036  RH  062%=      5-min Rain = 0
KOD1 080726Z 00005KT 03/M04 A3048 RMK A01 T00291037  RH  062%=      5-min Rain = 0
KOD1 080727Z 00005KT 03/M04 A3048 RMK A01 T00291037  RH  062%=      5-min Rain = 0
KOD1 080728Z 00005KT 03/M04 A3048 RMK A01 T00291036  RH  062%=      5-min Rain = 0
KOD1 080729Z 00005KT 03/M04 A3048 RMK A01 T00291036  RH  062%=      5-min Rain = 0
KOD1 080730Z 00004KT 03/M03 A3048 RMK A01 T00301034  RH  063%=      5-min Rain = 0
KOD1 080731Z 00005KT 03/M03 A3048 RMK A01 T00301034  RH  063%=      5-min Rain = 0
KOD1 080732Z 36005KT 03/M04 A3048 RMK A01 T00301035  RH  062%=      5-min Rain = 0
KOD1 080733Z 36005KT 03/M04 A3048 RMK A01 T00301036  RH  062%=      5-min Rain = 0
KOD1 080734Z 00006KT 03/M04 A3048 RMK A01 T00301038  RH  061%=      5-min Rain = 0
KOD1 080735Z 36005KT 03/M04 A3048 RMK A01 T00301038  RH  061%=      5-min Rain = 0
KOD1 080736Z 00005KT 03/M04 A3048 RMK A01 T00311036  RH  062%=      5-min Rain = 0
KOD1 080737Z 00005KT 03/M04 A3048 RMK A01 T00311037  RH  061%=      5-min Rain = 0
KOD1 080738Z 00005KT 03/M04 A3048 RMK A01 T00311038  RH  061%=      5-min Rain = 0
KOD1 080739Z 01005KT 03/M04 A3048 RMK A01 T00311039  RH  060%=      5-min Rain = 0
KOD1 080740Z 00005KT 03/M04 A3048 RMK A01 T00311038  RH  061%=      5-min Rain = 0
KOD1 080741Z 00006KT 03/M04 A3048 RMK A01 T00311038  RH  060%=      5-min Rain = 0
KOD1 080742Z 01005KT 03/M04 A3048 RMK A01 T00311039  RH  060%=      5-min Rain = 0
KOD1 080743Z 01005KT 03/M04 A3048 RMK A01 T00311038  RH  061%=      5-min Rain = 0
KOD1 080744Z 00005KT 03/M04 A3048 RMK A01 T00311039  RH  060%=      5-min Rain = 0
KOD1 080745Z 01005KT 03/M04 A3048 RMK A01 T00311039  RH  060%=      5-min Rain = 0
KOD1 080746Z 00004KT 03/M04 A3048 RMK A01 T00311039  RH  060%=      5-min Rain = 0
KOD1 080747Z 01005KT 03/M04 A3048 RMK A01 T00311037  RH  061%=      5-min Rain = 0
KOD1 080748Z 00005KT 03/M04 A3048 RMK A01 T00311036  RH  062%=      5-min Rain = 0
KOD1 080749Z 00005KT 03/M04 A3048 RMK A01 T00311038  RH  061%=      5-min Rain = 0
KOD1 080750Z 00005KT 03/M04 A3048 RMK A01 T00311039  RH  060%=      5-min Rain = 0
KOD1 080751Z 36004KT 03/M04 A3048 RMK A01 T00311039  RH  060%=      5-min Rain = 0
KOD1 080752Z 00004KT 03/M04 A3048 RMK A01 T00311038  RH  060%=      5-min Rain = 0
KOD1 080753Z 00004KT 03/M04 A3048 RMK A01 T00311035  RH  062%=      5-min Rain = 0
KOD1 080754Z 01005KT 03/M04 A3048 RMK A01 T00311035  RH  062%=      5-min Rain = 0
KOD1 080755Z 01005KT 03/M04 A3048 RMK A01 T00311035  RH  062%=      5-min Rain = 0
KOD1 080756Z 00005KT 03/M04 A3048 RMK A01 T00311037  RH  061%=      5-min Rain = 0
KOD1 080757Z 01005KT 03/M04 A3048 RMK A01 T00311040  RH  059%=      5-min Rain = 0
KOD1 080758Z 36004KT 03/M04 A3048 RMK A01 T00311039  RH  060%=      5-min Rain = 0
KOD1 080759Z 00005KT 03/M04 A3048 RMK A01 T00311037  RH  061%=      5-min Rain = 0
KOD1 080800Z 00005KT 03/M04 A3048 RMK A01 T00311038  RH  060%=      5-min Rain = 0
KOD1 080801Z 00006KT 03/M04 A3048 RMK A01 T00311038  RH  060%=      5-min Rain = 0
KOD1 080802Z 00005KT 03/M04 A3048 RMK A01 T00311039  RH  060%=      5-min Rain = 0
KOD1 080803Z 35005KT 03/M04 A3048 RMK A01 T00311040  RH  060%=      5-min Rain = 0
KOD1 080804Z 35005KT 03/M04 A3048 RMK A01 T00311038  RH  060%=      5-min Rain = 0
KOD1 080805Z 35004KT 03/M04 A3048 RMK A01 T00311038  RH  060%=      5-min Rain = 0
KOD1 080806Z 35004KT 03/M04 A3048 RMK A01 T00311036  RH  061%=      5-min Rain = 0
KOD1 080807Z 34004KT 03/M04 A3048 RMK A01 T00311037  RH  061%=      5-min Rain = 0
KOD1 080808Z 34004KT 03/M04 A3048 RMK A01 T00311037  RH  061%=      5-min Rain = 0
KOD1 080809Z 35005KT 03/M04 A3048 RMK A01 T00311038  RH  061%=      5-min Rain = 0
KOD1 080810Z 35004KT 03/M04 A3048 RMK A01 T00311038  RH  061%=      5-min Rain = 0
KOD1 080811Z 35004KT 03/M04 A3048 RMK A01 T00311036  RH  061%=      5-min Rain = 0
KOD1 080812Z 35003KT 03/M04 A3048 RMK A01 T00311036  RH  061%=      5-min Rain = 0
KOD1 080813Z 36005KT 03/M04 A3048 RMK A01 T00311038  RH  061%=      5-min Rain = 0
KOD1 080814Z 00005KT 03/M04 A3048 RMK A01 T00311039  RH  060%=      5-min Rain = 0
KOD1 080815Z 00004KT 03/M04 A3048 RMK A01 T00311041  RH  059%=      5-min Rain = 0
KOD1 080816Z 00005KT 03/M04 A3048 RMK A01 T00311041  RH  059%=      5-min Rain = 0
KOD1 080817Z 36005KT 03/M04 A3047 RMK A01 T00311040  RH  059%=      5-min Rain = 0
KOD1 080818Z 01005KT 03/M04 A3047 RMK A01 T00311041  RH  059%=      5-min Rain = 0
KOD1 080819Z 01004KT 03/M04 A3047 RMK A01 T00311040  RH  060%=      5-min Rain = 0
KOD1 080820Z 00006KT 03/M04 A3047 RMK A01 T00311040  RH  060%=      5-min Rain = 0
KOD1 080821Z 00005KT 03/M04 A3047 RMK A01 T00311044  RH  058%=      5-min Rain = 0
KOD1 080822Z 36004KT 03/M04 A3047 RMK A01 T00311042  RH  059%=      5-min Rain = 0
KOD1 080823Z 36004KT 03/M04 A3047 RMK A01 T00311038  RH  060%=      5-min Rain = 0
KOD1 080824Z 36005KT 03/M04 A3047 RMK A01 T00311036  RH  061%=      5-min Rain = 0
KOD1 080825Z 36004KT 03/M04 A3047 RMK A01 T00311037  RH  061%=      5-min Rain = 0
KOD1 080826Z 36005KT 03/M04 A3047 RMK A01 T00311035  RH  062%=      5-min Rain = 0
KOD1 080827Z 00004KT 03/M04 A3047 RMK A01 T00311037  RH  061%=      5-min Rain = 0
KOD1 080828Z 36004KT 03/M04 A3047 RMK A01 T00311035  RH  062%=      5-min Rain = 0
KOD1 080829Z 00005KT 03/M04 A3047 RMK A01 T00311037  RH  061%=      5-min Rain = 0
KOD1 080830Z 00005KT 03/M04 A3047 RMK A01 T00311038  RH  060%=      5-min Rain = 0
KOD1 080831Z 00004KT 03/M04 A3047 RMK A01 T00311036  RH  061%=      5-min Rain = 0
KOD1 080832Z 00004KT 03/M04 A3047 RMK A01 T00311035  RH  062%=      5-min Rain = 0
KOD1 080833Z 00004KT 03/M04 A3047 RMK A01 T00311036  RH  061%=      5-min Rain = 0
KOD1 080834Z 36004KT 03/M04 A3047 RMK A01 T00311038  RH  060%=      5-min Rain = 0
KOD1 080835Z 00004KT 03/M04 A3047 RMK A01 T00311038  RH  060%=      5-min Rain = 0
KOD1 080836Z 00005KT 03/M04 A3047 RMK A01 T00311041  RH  059%=      5-min Rain = 0
KOD1 080837Z 00004KT 03/M04 A3047 RMK A01 T00311042  RH  059%=      5-min Rain = 0
KOD1 080838Z 36004KT 03/M04 A3047 RMK A01 T00311041  RH  059%=      5-min Rain = 0
KOD1 080839Z 36003KT 03/M04 A3047 RMK A01 T00311038  RH  060%=      5-min Rain = 0
KOD1 080840Z 36004KT 03/M04 A3047 RMK A01 T00311038  RH  061%=      5-min Rain = 0
KOD1 080841Z 00003KT 03/M04 A3047 RMK A01 T00311038  RH  061%=      5-min Rain = 0
KOD1 080842Z 36004KT 03/M04 A3047 RMK A01 T00311039  RH  060%=      5-min Rain = 0
KOD1 080843Z 00005KT 03/M04 A3047 RMK A01 T00311041  RH  059%=      5-min Rain = 0
KOD1 080844Z 36005KT 03/M04 A3047 RMK A01 T00311042  RH  059%=      5-min Rain = 0
KOD1 080845Z 35004KT 03/M04 A3047 RMK A01 T00311041  RH  059%=      5-min Rain = 0
KOD1 080846Z 35004KT 03/M04 A3047 RMK A01 T00311039  RH  060%=      5-min Rain = 0
KOD1 080847Z 35005KT 03/M04 A3047 RMK A01 T00311038  RH  060%=      5-min Rain = 0
KOD1 080848Z 35004KT 03/M04 A3047 RMK A01 T00311038  RH  060%=      5-min Rain = 0
KOD1 080849Z 36004KT 03/M04 A3047 RMK A01 T00311037  RH  061%=      5-min Rain = 0
KOD1 080850Z 36004KT 03/M04 A3047 RMK A01 T00311037  RH  061%=      5-min Rain = 0
KOD1 080851Z 00004KT 03/M04 A3047 RMK A01 T00311038  RH  061%=      5-min Rain = 0
KOD1 080852Z 01004KT 03/M04 A3047 RMK A01 T00311038  RH  060%=      5-min Rain = 0
KOD1 080853Z 00004KT 03/M04 A3046 RMK A01 T00311039  RH  060%=      5-min Rain = 0
KOD1 080854Z 00004KT 03/M04 A3046 RMK A01 T00311040  RH  059%=      5-min Rain = 0
KOD1 080855Z 00004KT 03/M04 A3046 RMK A01 T00311038  RH  061%=      5-min Rain = 0
KOD1 080856Z 00004KT 03/M04 A3046 RMK A01 T00311037  RH  061%=      5-min Rain = 0
KOD1 080857Z 00004KT 03/M04 A3046 RMK A01 T00311038  RH  060%=      5-min Rain = 0
KOD1 080858Z 35004KT 03/M04 A3046 RMK A01 T00311037  RH  061%=      5-min Rain = 0
KOD1 080859Z 36004KT 03/M04 A3046 RMK A01 T00311038  RH  060%=      5-min Rain = 0
KOD1 080900Z 36004KT 03/M04 A3046 RMK A01 T00311038  RH  061%=      5-min Rain = 0
KOD1 080901Z 00004KT 03/M04 A3046 RMK A01 T00311037  RH  061%=      5-min Rain = 0
KOD1 080902Z 00004KT 03/M04 A3046 RMK A01 T00311037  RH  061%=      5-min Rain = 0
KOD1 080903Z 00004KT 03/M04 A3046 RMK A01 T00311037  RH  061%=      5-min Rain = 0
KOD1 080904Z 00004KT 03/M04 A3046 RMK A01 T00311036  RH  061%=      5-min Rain = 0
KOD1 080905Z 01003KT 03/M04 A3046 RMK A01 T00311035  RH  062%=      5-min Rain = 0
KOD1 080906Z 00004KT 03/M04 A3046 RMK A01 T00311035  RH  062%=      5-min Rain = 0
KOD1 080907Z 01004KT 03/M04 A3046 RMK A01 T00311036  RH  062%=      5-min Rain = 0
KOD1 080908Z 01004KT 03/M04 A3046 RMK A01 T00311038  RH  061%=      5-min Rain = 0
KOD1 080909Z 01005KT 03/M04 A3046 RMK A01 T00311039  RH  060%=      5-min Rain = 0
KOD1 080910Z 01005KT 03/M04 A3046 RMK A01 T00311042  RH  058%=      5-min Rain = 0
KOD1 080911Z 01004KT 03/M04 A3046 RMK A01 T00311044  RH  058%=      5-min Rain = 0
KOD1 080912Z 01005KT 03/M04 A3046 RMK A01 T00311043  RH  058%=      5-min Rain = 0
KOD1 080913Z 01004KT 03/M04 A3046 RMK A01 T00311043  RH  058%=      5-min Rain = 0
KOD1 080914Z 02003KT 03/M04 A3046 RMK A01 T00311040  RH  059%=      5-min Rain = 0
KOD1 080915Z 01004KT 03/M04 A3046 RMK A01 T00311038  RH  060%=      5-min Rain = 0
KOD1 080916Z 01004KT 03/M04 A3046 RMK A01 T00311040  RH  059%=      5-min Rain = 0
KOD1 080917Z 01004KT 03/M04 A3046 RMK A01 T00311040  RH  060%=      5-min Rain = 0
KOD1 080918Z 01004KT 03/M04 A3046 RMK A01 T00311040  RH  059%=      5-min Rain = 0
KOD1 080919Z 01004KT 03/M04 A3046 RMK A01 T00311037  RH  061%=      5-min Rain = 0
KOD1 080920Z 01004KT 03/M04 A3046 RMK A01 T00311039  RH  060%=      5-min Rain = 0
KOD1 080921Z 01004KT 03/M04 A3046 RMK A01 T00311039  RH  060%=      5-min Rain = 0
KOD1 080922Z 01005KT 03/M04 A3046 RMK A01 T00311041  RH  059%=      5-min Rain = 0
KOD1 080923Z 00005KT 03/M04 A3046 RMK A01 T00311040  RH  059%=      5-min Rain = 0
KOD1 080924Z 00004KT 03/M04 A3046 RMK A01 T00311038  RH  060%=      5-min Rain = 0
KOD1 080925Z 00005KT 03/M04 A3046 RMK A01 T00311036  RH  061%=      5-min Rain = 0
KOD1 080926Z 01005KT 03/M04 A3046 RMK A01 T00311039  RH  060%=      5-min Rain = 0
KOD1 080927Z 00004KT 03/M04 A3046 RMK A01 T00311040  RH  060%=      5-min Rain = 0
KOD1 080928Z 01004KT 03/M04 A3046 RMK A01 T00311038  RH  060%=      5-min Rain = 0
KOD1 080929Z 01006KT 03/M04 A3046 RMK A01 T00311041  RH  059%=      5-min Rain = 0
KOD1 080930Z 01005KT 03/M04 A3046 RMK A01 T00311042  RH  058%=      5-min Rain = 0
KOD1 080931Z 01004KT 03/M04 A3046 RMK A01 T00311040  RH  060%=      5-min Rain = 0
KOD1 080932Z 01004KT 03/M04 A3046 RMK A01 T00311038  RH  061%=      5-min Rain = 0
KOD1 080933Z 36003KT 03/M04 A3046 RMK A01 T00311037  RH  061%=      5-min Rain = 0
KOD1 080934Z 36004KT 03/M04 A3046 RMK A01 T00311035  RH  062%=      5-min Rain = 0
KOD1 080935Z 36005KT 03/M04 A3046 RMK A01 T00311036  RH  061%=      5-min Rain = 0
KOD1 080936Z 00005KT 03/M04 A3046 RMK A01 T00311038  RH  060%=      5-min Rain = 0
KOD1 080937Z 00004KT 03/M04 A3046 RMK A01 T00311038  RH  060%=      5-min Rain = 0
KOD1 080938Z 01004KT 03/M04 A3046 RMK A01 T00321037  RH  061%=      5-min Rain = 0
KOD1 080939Z 01004KT 03/M04 A3046 RMK A01 T00311038  RH  060%=      5-min Rain = 0
KOD1 080940Z 01004KT 03/M04 A3046 RMK A01 T00311037  RH  061%=      5-min Rain = 0
KOD1 080941Z 01006KT 03/M04 A3046 RMK A01 T00311038  RH  060%=      5-min Rain = 0
KOD1 080942Z 01006KT 03/M04 A3046 RMK A01 T00311043  RH  058%=      5-min Rain = 0
KOD1 080943Z 01007KT 03/M04 A3046 RMK A01 T00311044  RH  058%=      5-min Rain = 0
KOD1 080944Z 01007KT 03/M05 A3046 RMK A01 T00311047  RH  056%=      5-min Rain = 0
KOD1 080945Z 01006KT 03/M05 A3046 RMK A01 T00311047  RH  057%=      5-min Rain = 0
KOD1 080946Z 02006KT 03/M05 A3046 RMK A01 T00311046  RH  057%=      5-min Rain = 0
KOD1 080947Z 02007KT 03/M05 A3046 RMK A01 T00311047  RH  056%=      5-min Rain = 0
KOD1 080948Z 01005KT 03/M05 A3046 RMK A01 T00311047  RH  057%=      5-min Rain = 0
KOD1 080949Z 02005KT 03/M05 A3046 RMK A01 T00311046  RH  057%=      5-min Rain = 0
KOD1 080950Z 02004KT 03/M04 A3046 RMK A01 T00311044  RH  058%=      5-min Rain = 0
KOD1 080951Z 02005KT 03/M04 A3046 RMK A01 T00311043  RH  058%=      5-min Rain = 0
KOD1 080952Z 01006KT 03/M04 A3046 RMK A01 T00311043  RH  058%=      5-min Rain = 0
KOD1 080953Z 01005KT 03/M05 A3046 RMK A01 T00311045  RH  057%=      5-min Rain = 0
KOD1 080954Z 01005KT 03/M04 A3046 RMK A01 T00321044  RH  057%=      5-min Rain = 0
KOD1 080955Z 01005KT 03/M04 A3046 RMK A01 T00311042  RH  059%=      5-min Rain = 0
KOD1 080956Z 00006KT 03/M04 A3046 RMK A01 T00321042  RH  059%=      5-min Rain = 0
KOD1 080957Z 01006KT 03/M04 A3046 RMK A01 T00311044  RH  058%=      5-min Rain = 0
KOD1 080958Z 01006KT 03/M04 A3046 RMK A01 T00311044  RH  058%=      5-min Rain = 0
KOD1 080959Z 01006KT 03/M05 A3046 RMK A01 T00311046  RH  057%=      5-min Rain = 0
KOD1 081000Z 01005KT 03/M05 A3046 RMK A01 T00311047  RH  057%=      5-min Rain = 0
KOD1 081001Z 01006KT 03/M05 A3046 RMK A01 T00311047  RH  057%=      5-min Rain = 0
KOD1 081002Z 01005KT 03/M05 A3046 RMK A01 T00311046  RH  057%=      5-min Rain = 0
KOD1 081003Z 01005KT 03/M04 A3046 RMK A01 T00311044  RH  058%=      5-min Rain = 0
KOD1 081004Z 00005KT 03/M04 A3046 RMK A01 T00311044  RH  058%=      5-min Rain = 0
KOD1 081005Z 01005KT 03/M04 A3046 RMK A01 T00311041  RH  059%=      5-min Rain = 0
KOD1 081006Z 01005KT 03/M04 A3046 RMK A01 T00311041  RH  059%=      5-min Rain = 0
KOD1 081007Z 00005KT 03/M04 A3046 RMK A01 T00311040  RH  060%=      5-min Rain = 0
KOD1 081008Z 01005KT 03/M04 A3046 RMK A01 T00311040  RH  060%=      5-min Rain = 0
KOD1 081009Z 01006KT 03/M04 A3046 RMK A01 T00311039  RH  060%=      5-min Rain = 0
KOD1 081010Z 01006KT 03/M04 A3046 RMK A01 T00311042  RH  059%=      5-min Rain = 0
KOD1 081011Z 01007KT 03/M04 A3046 RMK A01 T00311044  RH  058%=      5-min Rain = 0
KOD1 081012Z 00006KT 03/M05 A3046 RMK A01 T00311046  RH  057%=      5-min Rain = 0
KOD1 081013Z 01005KT 03/M05 A3046 RMK A01 T00311045  RH  057%=      5-min Rain = 0
KOD1 081014Z 01006KT 03/M04 A3046 RMK A01 T00311044  RH  058%=      5-min Rain = 0
KOD1 081015Z 01006KT 03/M04 A3046 RMK A01 T00311044  RH  058%=      5-min Rain = 0
KOD1 081016Z 01006KT 03/M04 A3046 RMK A01 T00311044  RH  058%=      5-min Rain = 0
KOD1 081017Z 01005KT 03/M04 A3046 RMK A01 T00311043  RH  059%=      5-min Rain = 0
KOD1 081018Z 01006KT 03/M04 A3046 RMK A01 T00311044  RH  058%=      5-min Rain = 0
KOD1 081019Z 01005KT 03/M05 A3046 RMK A01 T00301047  RH  057%=      5-min Rain = 0
KOD1 081020Z 00005KT 03/M04 A3046 RMK A01 T00301044  RH  058%=      5-min Rain = 0
KOD1 081021Z 00006KT 03/M05 A3046 RMK A01 T00301046  RH  058%=      5-min Rain = 0
KOD1 081022Z 01005KT 03/M05 A3046 RMK A01 T00301047  RH  057%=      5-min Rain = 0
KOD1 081023Z 01006KT 03/M05 A3046 RMK A01 T00301047  RH  057%=      5-min Rain = 0
KOD1 081024Z 01006KT 03/M05 A3046 RMK A01 T00301048  RH  057%=      5-min Rain = 0
KOD1 081025Z 01005KT 03/M05 A3046 RMK A01 T00301046  RH  057%=      5-min Rain = 0
KOD1 081026Z 02005KT 03/M04 A3046 RMK A01 T00301044  RH  058%=      5-min Rain = 0
KOD1 081027Z 01005KT 03/M04 A3046 RMK A01 T00301044  RH  058%=      5-min Rain = 0
KOD1 081028Z 00004KT 03/M04 A3046 RMK A01 T00301044  RH  058%=      5-min Rain = 0
KOD1 081029Z 00005KT 03/M04 A3046 RMK A01 T00301042  RH  059%=      5-min Rain = 0
KOD1 081030Z 00006KT 03/M04 A3046 RMK A01 T00301044  RH  058%=      5-min Rain = 0
KOD1 081031Z 36005KT 03/M05 A3046 RMK A01 T00301046  RH  057%=      5-min Rain = 0
KOD1 081032Z 36004KT 03/M05 A3046 RMK A01 T00301045  RH  058%=      5-min Rain = 0
KOD1 081033Z 36006KT 03/M04 A3046 RMK A01 T00301043  RH  059%=      5-min Rain = 0
KOD1 081034Z 36005KT 03/M05 A3046 RMK A01 T00301048  RH  056%=      5-min Rain = 0
KOD1 081035Z 36005KT 03/M05 A3046 RMK A01 T00301046  RH  057%=      5-min Rain = 0
KOD1 081036Z 35004KT 03/M04 A3046 RMK A01 T00301044  RH  058%=      5-min Rain = 0
KOD1 081037Z 35005KT 03/M04 A3046 RMK A01 T00301041  RH  060%=      5-min Rain = 0
KOD1 081038Z 35006KT 03/M04 A3046 RMK A01 T00301042  RH  059%=      5-min Rain = 0
KOD1 081039Z 00006KT 03/M05 A3046 RMK A01 T00301047  RH  057%=      5-min Rain = 0
KOD1 081040Z 00005KT 03/M05 A3046 RMK A01 T00301046  RH  058%=      5-min Rain = 0
KOD1 081041Z 35004KT 03/M04 A3046 RMK A01 T00301043  RH  059%=      5-min Rain = 0
KOD1 081042Z 35005KT 03/M04 A3046 RMK A01 T00301040  RH  060%=      5-min Rain = 0
KOD1 081043Z 36006KT 03/M04 A3046 RMK A01 T00301041  RH  060%=      5-min Rain = 0
KOD1 081044Z 35006KT 03/M04 A3046 RMK A01 T00301042  RH  059%=      5-min Rain = 0
KOD1 081045Z 35006KT 03/M04 A3046 RMK A01 T00301043  RH  059%=      5-min Rain = 0
KOD1 081046Z 35006KT 03/M05 A3046 RMK A01 T00291045  RH  058%=      5-min Rain = 0
KOD1 081047Z 35006KT 03/M05 A3046 RMK A01 T00291046  RH  058%=      5-min Rain = 0
KOD1 081048Z 35006KT 03/M05 A3046 RMK A01 T00291046  RH  058%=      5-min Rain = 0
KOD1 081049Z 35005KT 03/M04 A3046 RMK A01 T00291043  RH  059%=      5-min Rain = 0
KOD1 081050Z 35007KT 03/M04 A3046 RMK A01 T00291044  RH  059%=      5-min Rain = 0
KOD1 081051Z 35005KT 03/M04 A3046 RMK A01 T00291044  RH  058%=      5-min Rain = 0
KOD1 081052Z 35005KT 03/M04 A3046 RMK A01 T00291043  RH  059%=      5-min Rain = 0
KOD1 081053Z 35005KT 03/M04 A3046 RMK A01 T00291040  RH  060%=      5-min Rain = 0
KOD1 081054Z 35007KT 03/M04 A3046 RMK A01 T00291042  RH  059%=      5-min Rain = 0
KOD1 081055Z 35006KT 03/M05 A3046 RMK A01 T00291045  RH  058%=      5-min Rain = 0
KOD1 081056Z 36005KT 03/M04 A3046 RMK A01 T00291044  RH  059%=      5-min Rain = 0
KOD1 081057Z 35006KT 03/M04 A3046 RMK A01 T00291042  RH  059%=      5-min Rain = 0
KOD1 081058Z 36005KT 03/M04 A3046 RMK A01 T00291043  RH  059%=      5-min Rain = 0
KOD1 081059Z 36006KT 03/M04 A3046 RMK A01 T00291044  RH  059%=      5-min Rain = 0
KOD1 081100Z 00006KT 03/M05 A3046 RMK A01 T00291045  RH  058%=      5-min Rain = 0
KOD1 081101Z 00005KT 03/M05 A3046 RMK A01 T00291045  RH  058%=      5-min Rain = 0
KOD1 081102Z 00005KT 03/M05 A3046 RMK A01 T00291045  RH  058%=      5-min Rain = 0
KOD1 081103Z 00005KT 03/M04 A3046 RMK A01 T00291044  RH  058%=      5-min Rain = 0
KOD1 081104Z 00004KT 03/M04 A3046 RMK A01 T00291042  RH  059%=      5-min Rain = 0
KOD1 081105Z 01004KT 03/M04 A3046 RMK A01 T00291041  RH  060%=      5-min Rain = 0
KOD1 081106Z 36005KT 03/M04 A3046 RMK A01 T00291040  RH  060%=      5-min Rain = 0
KOD1 081107Z 36006KT 03/M04 A3046 RMK A01 T00301042  RH  059%=      5-min Rain = 0
KOD1 081108Z 01006KT 03/M04 A3046 RMK A01 T00301043  RH  059%=      5-min Rain = 0
KOD1 081109Z 01006KT 03/M05 A3046 RMK A01 T00301045  RH  058%=      5-min Rain = 0
KOD1 081110Z 36005KT 03/M04 A3046 RMK A01 T00301044  RH  058%=      5-min Rain = 0
KOD1 081111Z 00004KT 03/M04 A3046 RMK A01 T00301042  RH  059%=      5-min Rain = 0
KOD1 081112Z 00006KT 03/M04 A3046 RMK A01 T00301041  RH  060%=      5-min Rain = 0
KOD1 081113Z 00005KT 03/M04 A3046 RMK A01 T00301044  RH  058%=      5-min Rain = 0
KOD1 081114Z 01005KT 03/M04 A3046 RMK A01 T00301043  RH  059%=      5-min Rain = 0
KOD1 081115Z 01005KT 03/M04 A3046 RMK A01 T00301041  RH  060%=      5-min Rain = 0
KOD1 081116Z 02005KT 03/M04 A3046 RMK A01 T00301041  RH  060%=      5-min Rain = 0
KOD1 081117Z 01005KT 03/M04 A3046 RMK A01 T00301044  RH  058%=      5-min Rain = 0
KOD1 081118Z 00005KT 03/M05 A3046 RMK A01 T00301046  RH  057%=      5-min Rain = 0
KOD1 081119Z 00006KT 03/M05 A3046 RMK A01 T00301046  RH  057%=      5-min Rain = 0
KOD1 081120Z 35005KT 03/M05 A3046 RMK A01 T00301047  RH  057%=      5-min Rain = 0
KOD1 081121Z 00006KT 03/M05 A3046 RMK A01 T00301045  RH  058%=      5-min Rain = 0
KOD1 081122Z 00006KT 03/M05 A3047 RMK A01 T00301045  RH  058%=      5-min Rain = 0
KOD1 081123Z 00005KT 03/M05 A3047 RMK A01 T00301047  RH  057%=      5-min Rain = 0
KOD1 081124Z 35005KT 03/M05 A3047 RMK A01 T00301045  RH  058%=      5-min Rain = 0
KOD1 081125Z 36005KT 03/M04 A3047 RMK A01 T00301044  RH  058%=      5-min Rain = 0
KOD1 081126Z 00005KT 03/M05 A3047 RMK A01 T00301045  RH  058%=      5-min Rain = 0
KOD1 081127Z 01005KT 03/M05 A3046 RMK A01 T00301045  RH  058%=      5-min Rain = 0
KOD1 081128Z 01004KT 03/M05 A3046 RMK A01 T00301045  RH  058%=      5-min Rain = 0
KOD1 081129Z 02004KT 03/M04 A3046 RMK A01 T00301044  RH  058%=      5-min Rain = 0
KOD1 081130Z 02004KT 03/M05 A3046 RMK A01 T00301046  RH  057%=      5-min Rain = 0
KOD1 081131Z 02005KT 03/M05 A3046 RMK A01 T00301046  RH  058%=      5-min Rain = 0
KOD1 081132Z 02004KT 03/M05 A3046 RMK A01 T00301046  RH  057%=      5-min Rain = 0
KOD1 081133Z 01005KT 03/M05 A3046 RMK A01 T00301047  RH  057%=      5-min Rain = 0
KOD1 081134Z 01004KT 03/M05 A3046 RMK A01 T00301047  RH  057%=      5-min Rain = 0
KOD1 081135Z 36003KT 03/M04 A3046 RMK A01 T00301043  RH  059%=      5-min Rain = 0
KOD1 081136Z 34004KT 03/M04 A3046 RMK A01 T00301042  RH  059%=      5-min Rain = 0
KOD1 081137Z 35005KT 03/M05 A3047 RMK A01 T00301046  RH  058%=      5-min Rain = 0
KOD1 081138Z 35004KT 03/M05 A3047 RMK A01 T00301045  RH  058%=      5-min Rain = 0
KOD1 081139Z 35005KT 03/M04 A3047 RMK A01 T00301043  RH  059%=      5-min Rain = 0
KOD1 081140Z 35005KT 03/M05 A3047 RMK A01 T00301045  RH  058%=      5-min Rain = 0
KOD1 081141Z 35005KT 03/M05 A3047 RMK A01 T00301046  RH  057%=      5-min Rain = 0
KOD1 081142Z 00005KT 03/M05 A3046 RMK A01 T00301048  RH  057%=      5-min Rain = 0
KOD1 081143Z 36004KT 03/M05 A3046 RMK A01 T00301047  RH  057%=      5-min Rain = 0
KOD1 081144Z 00005KT 03/M05 A3046 RMK A01 T00301046  RH  057%=      5-min Rain = 0
KOD1 081145Z 00005KT 03/M05 A3046 RMK A01 T00301047  RH  057%=      5-min Rain = 0
KOD1 081146Z 01005KT 03/M05 A3046 RMK A01 T00301048  RH  057%=      5-min Rain = 0
KOD1 081147Z 36004KT 03/M05 A3046 RMK A01 T00301047  RH  057%=      5-min Rain = 0
KOD1 081148Z 36004KT 03/M05 A3046 RMK A01 T00301045  RH  058%=      5-min Rain = 0
KOD1 081149Z 00005KT 03/M05 A3046 RMK A01 T00301045  RH  058%=      5-min Rain = 0
KOD1 081150Z 01004KT 03/M05 A3046 RMK A01 T00301046  RH  057%=      5-min Rain = 0
KOD1 081151Z 02004KT 03/M04 A3046 RMK A01 T00301044  RH  058%=      5-min Rain = 0
KOD1 081152Z 02004KT 03/M04 A3046 RMK A01 T00301044  RH  058%=      5-min Rain = 0
KOD1 081153Z 02004KT 03/M04 A3046 RMK A01 T00301042  RH  059%=      5-min Rain = 0
KOD1 081154Z 02005KT 03/M04 A3046 RMK A01 T00301041  RH  060%=      5-min Rain = 0
KOD1 081155Z 01005KT 03/M05 A3046 RMK A01 T00301045  RH  058%=      5-min Rain = 0
KOD1 081156Z 01004KT 03/M05 A3046 RMK A01 T00301045  RH  058%=      5-min Rain = 0
KOD1 081157Z 00005KT 03/M05 A3046 RMK A01 T00301045  RH  058%=      5-min Rain = 0
KOD1 081158Z 00005KT 03/M05 A3046 RMK A01 T00301048  RH  057%=      5-min Rain = 0
KOD1 081159Z 00004KT 03/M05 A3046 RMK A01 T00301048  RH  056%=      5-min Rain = 0
KOD1 081200Z 36004KT 03/M05 A3047 RMK A01 T00301049  RH  056%=      5-min Rain = 0
KOD1 081201Z 01004KT 03/M05 A3047 RMK A01 T00301048  RH  057%=      5-min Rain = 0
KOD1 081202Z 00004KT 03/M05 A3047 RMK A01 T00301048  RH  057%=      5-min Rain = 0
KOD1 081203Z 00005KT 03/M05 A3047 RMK A01 T00301046  RH  057%=      5-min Rain = 0
KOD1 081204Z 01005KT 03/M05 A3046 RMK A01 T00301047  RH  057%=      5-min Rain = 0
KOD1 081205Z 01005KT 03/M05 A3046 RMK A01 T00301049  RH  056%=      5-min Rain = 0
KOD1 081206Z 01004KT 03/M05 A3046 RMK A01 T00301049  RH  056%=      5-min Rain = 0
KOD1 081207Z 01004KT 03/M05 A3047 RMK A01 T00301048  RH  057%=      5-min Rain = 0
KOD1 081208Z 01004KT 03/M05 A3047 RMK A01 T00301048  RH  057%=      5-min Rain = 0
KOD1 081209Z 01004KT 03/M05 A3047 RMK A01 T00301047  RH  057%=      5-min Rain = 0
KOD1 081210Z 01003KT 03/M05 A3047 RMK A01 T00301047  RH  057%=      5-min Rain = 0
KOD1 081211Z 00003KT 03/M04 A3047 RMK A01 T00301044  RH  058%=      5-min Rain = 0
KOD1 081212Z 01003KT 03/M04 A3047 RMK A01 T00311042  RH  059%=      5-min Rain = 0
KOD1 081213Z 00004KT 03/M04 A3047 RMK A01 T00311044  RH  058%=      5-min Rain = 0
KOD1 081214Z 01004KT 03/M05 A3046 RMK A01 T00311045  RH  058%=      5-min Rain = 0
KOD1 081215Z 01004KT 03/M05 A3046 RMK A01 T00301045  RH  058%=      5-min Rain = 0
KOD1 081216Z 01004KT 03/M05 A3046 RMK A01 T00301045  RH  058%=      5-min Rain = 0
KOD1 081217Z 02004KT 03/M05 A3046 RMK A01 T00301045  RH  058%=      5-min Rain = 0
KOD1 081218Z 01004KT 03/M05 A3046 RMK A01 T00301046  RH  057%=      5-min Rain = 0
KOD1 081219Z 01004KT 03/M05 A3046 RMK A01 T00301047  RH  057%=      5-min Rain = 0
KOD1 081220Z 01004KT 03/M05 A3046 RMK A01 T00301047  RH  057%=      5-min Rain = 0
KOD1 081221Z 01004KT 03/M05 A3046 RMK A01 T00301048  RH  057%=      5-min Rain = 0
KOD1 081222Z 02004KT 03/M05 A3046 RMK A01 T00301050  RH  056%=      5-min Rain = 0
KOD1 081223Z 02004KT 03/M05 A3046 RMK A01 T00301049  RH  056%=      5-min Rain = 0
KOD1 081224Z 02004KT 03/M05 A3046 RMK A01 T00301047  RH  057%=      5-min Rain = 0
KOD1 081225Z 02004KT 03/M05 A3046 RMK A01 T00301045  RH  058%=      5-min Rain = 0
KOD1 081226Z 02004KT 03/M05 A3046 RMK A01 T00301045  RH  058%=      5-min Rain = 0
KOD1 081227Z 01004KT 03/M05 A3046 RMK A01 T00301047  RH  057%=      5-min Rain = 0
KOD1 081228Z 01004KT 03/M05 A3046 RMK A01 T00301048  RH  056%=      5-min Rain = 0
KOD1 081229Z 01004KT 03/M05 A3046 RMK A01 T00301049  RH  056%=      5-min Rain = 0
KOD1 081230Z 02003KT 03/M05 A3046 RMK A01 T00301048  RH  057%=      5-min Rain = 0
KOD1 081231Z 04003KT 03/M04 A3046 RMK A01 T00301044  RH  058%=      5-min Rain = 0
KOD1 081232Z 04004KT 03/M04 A3046 RMK A01 T00301044  RH  058%=      5-min Rain = 0
KOD1 081233Z 03003KT 03/M04 A3046 RMK A01 T00301044  RH  058%=      5-min Rain = 0
KOD1 081234Z 03003KT 03/M04 A3046 RMK A01 T00301044  RH  058%=      5-min Rain = 0
KOD1 081235Z 03003KT 03/M04 A3045 RMK A01 T00301044  RH  058%=      5-min Rain = 0
KOD1 081236Z 02002KT 03/M04 A3045 RMK A01 T00311042  RH  059%=      5-min Rain = 0
KOD1 081237Z 03004KT 03/M04 A3045 RMK A01 T00311043  RH  059%=      5-min Rain = 0
KOD1 081238Z 02004KT 03/M04 A3045 RMK A01 T00301044  RH  058%=      5-min Rain = 0
KOD1 081239Z 02003KT 03/M05 A3045 RMK A01 T00301048  RH  057%=      5-min Rain = 0
KOD1 081240Z 02003KT 03/M05 A3046 RMK A01 T00301047  RH  057%=      5-min Rain = 0
KOD1 081241Z 02003KT 03/M05 A3046 RMK A01 T00301048  RH  057%=      5-min Rain = 0
KOD1 081242Z 02003KT 03/M05 A3046 RMK A01 T00301048  RH  056%=      5-min Rain = 0
KOD1 081243Z 02003KT 03/M05 A3046 RMK A01 T00301047  RH  057%=      5-min Rain = 0
KOD1 081244Z 00003KT 03/M04 A3046 RMK A01 T00301044  RH  058%=      5-min Rain = 0
KOD1 081245Z 01004KT 03/M05 A3046 RMK A01 T00311045  RH  058%=      5-min Rain = 0
KOD1 081246Z 02004KT 03/M05 A3046 RMK A01 T00301047  RH  057%=      5-min Rain = 0
KOD1 081247Z 01004KT 03/M05 A3046 RMK A01 T00301047  RH  057%=      5-min Rain = 0
KOD1 081248Z 02006KT 03/M05 A3046 RMK A01 T00301047  RH  057%=      5-min Rain = 0
KOD1 081249Z 02005KT 03/M05 A3046 RMK A01 T00301048  RH  056%=      5-min Rain = 0
KOD1 081250Z 02005KT 03/M05 A3046 RMK A01 T00301049  RH  056%=      5-min Rain = 0
KOD1 081251Z 01005KT 03/M05 A3046 RMK A01 T00301048  RH  056%=      5-min Rain = 0
KOD1 081252Z 02004KT 03/M05 A3046 RMK A01 T00301048  RH  057%=      5-min Rain = 0
KOD1 081253Z 01005KT 03/M05 A3046 RMK A01 T00301047  RH  057%=      5-min Rain = 0
KOD1 081254Z 02004KT 03/M05 A3046 RMK A01 T00301046  RH  057%=      5-min Rain = 0
KOD1 081255Z 01005KT 03/M05 A3046 RMK A01 T00301046  RH  058%=      5-min Rain = 0
KOD1 081256Z 01005KT 03/M05 A3046 RMK A01 T00301048  RH  057%=      5-min Rain = 0
KOD1 081257Z 02005KT 03/M05 A3046 RMK A01 T00301048  RH  057%=      5-min Rain = 0
KOD1 081258Z 01005KT 03/M05 A3046 RMK A01 T00301049  RH  056%=      5-min Rain = 0
KOD1 081259Z 00005KT 03/M05 A3046 RMK A01 T00301050  RH  055%=      5-min Rain = 0
KOD1 081300Z 00006KT 03/M05 A3046 RMK A01 T00301049  RH  056%=      5-min Rain = 0
KOD1 081301Z 01005KT 03/M05 A3046 RMK A01 T00301048  RH  056%=      5-min Rain = 0
KOD1 081302Z 01005KT 03/M05 A3046 RMK A01 T00301047  RH  057%=      5-min Rain = 0
KOD1 081303Z 02005KT 03/M05 A3046 RMK A01 T00301048  RH  056%=      5-min Rain = 0
KOD1 081304Z 02004KT 03/M05 A3046 RMK A01 T00301048  RH  056%=      5-min Rain = 0
KOD1 081305Z 01004KT 03/M05 A3046 RMK A01 T00301049  RH  056%=      5-min Rain = 0
KOD1 081306Z 02004KT 03/M05 A3046 RMK A01 T00301047  RH  057%=      5-min Rain = 0
KOD1 081307Z 02004KT 03/M05 A3046 RMK A01 T00301047  RH  057%=      5-min Rain = 0
KOD1 081308Z 02005KT 03/M05 A3046 RMK A01 T00301049  RH  056%=      5-min Rain = 0
KOD1 081309Z 02004KT 03/M05 A3046 RMK A01 T00301050  RH  056%=      5-min Rain = 0
KOD1 081310Z 02004KT 03/M05 A3046 RMK A01 T00301050  RH  056%=      5-min Rain = 0
KOD1 081311Z 02003KT 03/M05 A3046 RMK A01 T00301049  RH  056%=      5-min Rain = 0
KOD1 081312Z 02003KT 03/M05 A3046 RMK A01 T00301048  RH  057%=      5-min Rain = 0
KOD1 081313Z 03004KT 03/M05 A3046 RMK A01 T00301048  RH  057%=      5-min Rain = 0
KOD1 081314Z 03003KT 03/M05 A3046 RMK A01 T00301049  RH  056%=      5-min Rain = 0
KOD1 081315Z 03003KT 03/M05 A3046 RMK A01 T00301047  RH  057%=      5-min Rain = 0
KOD1 081316Z 03004KT 03/M05 A3046 RMK A01 T00301046  RH  057%=      5-min Rain = 0
KOD1 081317Z 03004KT 03/M05 A3046 RMK A01 T00301046  RH  057%=      5-min Rain = 0
KOD1 081318Z 03003KT 03/M05 A3046 RMK A01 T00301045  RH  058%=      5-min Rain = 0
KOD1 081319Z 04003KT 03/M04 A3046 RMK A01 T00311043  RH  058%=      5-min Rain = 0
KOD1 081320Z 03003KT 03/M04 A3046 RMK A01 T00311043  RH  058%=      5-min Rain = 0
KOD1 081321Z 04003KT 03/M04 A3046 RMK A01 T00311042  RH  059%=      5-min Rain = 0
KOD1 081322Z 03003KT 03/M04 A3046 RMK A01 T00311041  RH  059%=      5-min Rain = 0
KOD1 081323Z 03004KT 03/M04 A3046 RMK A01 T00311044  RH  058%=      5-min Rain = 0
KOD1 081324Z 03004KT 03/M05 A3046 RMK A01 T00311046  RH  057%=      5-min Rain = 0
KOD1 081325Z 03003KT 03/M05 A3046 RMK A01 T00311046  RH  057%=      5-min Rain = 0
KOD1 081326Z 04004KT 03/M04 A3046 RMK A01 T00311043  RH  058%=      5-min Rain = 0
KOD1 081327Z 04004KT 03/M05 A3046 RMK A01 T00311045  RH  057%=      5-min Rain = 0
KOD1 081328Z 04003KT 03/M05 A3046 RMK A01 T00311046  RH  057%=      5-min Rain = 0
KOD1 081329Z 04004KT 03/M05 A3046 RMK A01 T00311046  RH  057%=      5-min Rain = 0
KOD1 081330Z 03003KT 03/M05 A3046 RMK A01 T00311048  RH  056%=      5-min Rain = 0
KOD1 081331Z 02003KT 03/M05 A3046 RMK A01 T00311046  RH  057%=      5-min Rain = 0
KOD1 081332Z 03003KT 03/M04 A3046 RMK A01 T00311044  RH  058%=      5-min Rain = 0
KOD1 081333Z 03004KT 03/M05 A3046 RMK A01 T00311046  RH  057%=      5-min Rain = 0
KOD1 081334Z 03004KT 03/M05 A3046 RMK A01 T00311047  RH  056%=      5-min Rain = 0
KOD1 081335Z 03004KT 03/M05 A3046 RMK A01 T00311048  RH  056%=      5-min Rain = 0
KOD1 081336Z 02004KT 03/M05 A3046 RMK A01 T00311048  RH  056%=      5-min Rain = 0
KOD1 081337Z 03004KT 03/M05 A3046 RMK A01 T00311048  RH  056%=      5-min Rain = 0
KOD1 081338Z 03003KT 03/M05 A3046 RMK A01 T00311048  RH  056%=      5-min Rain = 0
KOD1 081339Z 03003KT 03/M05 A3047 RMK A01 T00311047  RH  056%=      5-min Rain = 0
KOD1 081340Z 03003KT 03/M05 A3047 RMK A01 T00311045  RH  057%=      5-min Rain = 0
KOD1 081341Z 02003KT 03/M05 A3047 RMK A01 T00311045  RH  057%=      5-min Rain = 0
KOD1 081342Z 01003KT 03/M04 A3047 RMK A01 T00311044  RH  058%=      5-min Rain = 0
KOD1 081343Z 01003KT 03/M05 A3047 RMK A01 T00321045  RH  057%=      5-min Rain = 0
KOD1 081344Z 01004KT 03/M05 A3047 RMK A01 T00321045  RH  057%=      5-min Rain = 0
KOD1 081345Z 01004KT 03/M05 A3047 RMK A01 T00321046  RH  057%=      5-min Rain = 0
KOD1 081346Z 01004KT 03/M04 A3047 RMK A01 T00321044  RH  058%=      5-min Rain = 0
KOD1 081347Z 02003KT 03/M04 A3047 RMK A01 T00321044  RH  058%=      5-min Rain = 0
KOD1 081348Z 00003KT 03/M05 A3047 RMK A01 T00321045  RH  057%=      5-min Rain = 0
KOD1 081349Z 01004KT 03/M04 A3047 RMK A01 T00331042  RH  058%=      5-min Rain = 0
KOD1 081350Z 01004KT 03/M04 A3048 RMK A01 T00331043  RH  058%=      5-min Rain = 0
KOD1 081351Z 01004KT 03/M05 A3048 RMK A01 T00331045  RH  057%=      5-min Rain = 0
KOD1 081352Z 00004KT 03/M04 A3048 RMK A01 T00331043  RH  058%=      5-min Rain = 0
KOD1 081353Z 00004KT 03/M04 A3048 RMK A01 T00331043  RH  058%=      5-min Rain = 0
KOD1 081354Z 00003KT 03/M04 A3047 RMK A01 T00331042  RH  058%=      5-min Rain = 0
KOD1 081355Z 01003KT 03/M04 A3047 RMK A01 T00321043  RH  058%=      5-min Rain = 0
KOD1 081356Z 36004KT 03/M04 A3048 RMK A01 T00321044  RH  057%=      5-min Rain = 0
KOD1 081357Z 00004KT 03/M04 A3048 RMK A01 T00321044  RH  057%=      5-min Rain = 0
KOD1 081358Z 36003KT 03/M04 A3048 RMK A01 T00321043  RH  058%=      5-min Rain = 0
KOD1 081359Z 35003KT 03/M05 A3048 RMK A01 T00321045  RH  057%=      5-min Rain = 0
KOD1 081400Z 00003KT 03/M04 A3048 RMK A01 T00321043  RH  058%=      5-min Rain = 0
KOD1 081401Z 01003KT 03/M04 A3048 RMK A01 T00331041  RH  059%=      5-min Rain = 0
KOD1 081402Z 01003KT 03/M05 A3048 RMK A01 T00331045  RH  057%=      5-min Rain = 0
KOD1 081403Z 02003KT 03/M04 A3048 RMK A01 T00331044  RH  057%=      5-min Rain = 0
KOD1 081404Z 03003KT 03/M05 A3048 RMK A01 T00331047  RH  056%=      5-min Rain = 0
KOD1 081405Z 02003KT 03/M05 A3048 RMK A01 T00331047  RH  056%=      5-min Rain = 0
KOD1 081406Z 00003KT 03/M05 A3048 RMK A01 T00331045  RH  057%=      5-min Rain = 0
KOD1 081407Z 01002KT 03/M05 A3048 RMK A01 T00331049  RH  055%=      5-min Rain = 0
KOD1 081408Z 02002KT 03/M05 A3048 RMK A01 T00331046  RH  056%=      5-min Rain = 0
KOD1 081409Z 01002KT 03/M05 A3048 RMK A01 T00331047  RH  056%=      5-min Rain = 0
KOD1 081410Z 01002KT 03/M05 A3048 RMK A01 T00331046  RH  056%=      5-min Rain = 0
KOD1 081411Z 01003KT 03/M05 A3048 RMK A01 T00331047  RH  056%=      5-min Rain = 0
KOD1 081412Z 01003KT 03/M05 A3048 RMK A01 T00331051  RH  054%=      5-min Rain = 0
KOD1 081413Z 01003KT 03/M05 A3048 RMK A01 T00331051  RH  054%=      5-min Rain = 0
KOD1 081414Z 00004KT 03/M05 A3048 RMK A01 T00331050  RH  055%=      5-min Rain = 0
KOD1 081415Z 02003KT 03/M05 A3048 RMK A01 T00331051  RH  054%=      5-min Rain = 0
KOD1 081416Z 02002KT 03/M05 A3048 RMK A01 T00341047  RH  055%=      5-min Rain = 0
KOD1 081417Z 02002KT 03/M05 A3048 RMK A01 T00341047  RH  055%=      5-min Rain = 0
KOD1 081418Z 03002KT 03/M05 A3048 RMK A01 T00341048  RH  055%=      5-min Rain = 0
KOD1 081419Z 04002KT 03/M05 A3048 RMK A01 T00341049  RH  054%=      5-min Rain = 0
KOD1 081420Z 04002KT 03/M05 A3048 RMK A01 T00341050  RH  054%=      5-min Rain = 0
KOD1 081421Z 04001KT 03/M05 A3048 RMK A01 T00341047  RH  055%=      5-min Rain = 0
KOD1 081422Z 04002KT 03/M05 A3048 RMK A01 T00341048  RH  055%=      5-min Rain = 0
KOD1 081423Z 04002KT 03/M05 A3048 RMK A01 T00341047  RH  055%=      5-min Rain = 0
KOD1 081424Z 06001KT 03/M05 A3048 RMK A01 T00341048  RH  055%=      5-min Rain = 0
KOD1 081425Z 04001KT 03/M05 A3048 RMK A01 T00341049  RH  055%=      5-min Rain = 0
KOD1 081426Z 03000KT 03/M05 A3048 RMK A01 T00341048  RH  055%=      5-min Rain = 0
KOD1 081427Z 03002KT 03/M05 A3048 RMK A01 T00341045  RH  056%=      5-min Rain = 0
KOD1 081428Z 04001KT 03/M05 A3048 RMK A01 T00341045  RH  056%=      5-min Rain = 0
KOD1 081429Z 02002KT 03/M04 A3048 RMK A01 T00341041  RH  058%=      5-min Rain = 0
KOD1 081430Z 02002KT 03/M05 A3048 RMK A01 T00341045  RH  056%=      5-min Rain = 0
KOD1 081431Z 00002KT 03/M05 A3048 RMK A01 T00341045  RH  056%=      5-min Rain = 0
KOD1 081432Z 36002KT 04/M04 A3048 RMK A01 T00351043  RH  057%=      5-min Rain = 0
KOD1 081433Z 02003KT 04/M04 A3049 RMK A01 T00351043  RH  057%=      5-min Rain = 0
KOD1 081434Z 02002KT 04/M05 A3049 RMK A01 T00351046  RH  055%=      5-min Rain = 0
KOD1 081435Z 35001KT 04/M05 A3049 RMK A01 T00351047  RH  055%=      5-min Rain = 0
KOD1 081436Z 02002KT 04/M04 A3049 RMK A01 T00351042  RH  057%=      5-min Rain = 0
KOD1 081437Z 02002KT 04/M05 A3049 RMK A01 T00351047  RH  055%=      5-min Rain = 0
KOD1 081438Z 01001KT 04/M05 A3048 RMK A01 T00351047  RH  055%=      5-min Rain = 0
KOD1 081439Z 04001KT 04/M05 A3048 RMK A01 T00361047  RH  055%=      5-min Rain = 0
KOD1 081440Z 05001KT 04/M05 A3048 RMK A01 T00361052  RH  053%=      5-min Rain = 0
KOD1 081441Z 05001KT 04/M05 A3049 RMK A01 T00361050  RH  053%=      5-min Rain = 0
KOD1 081442Z 02001KT 04/M05 A3049 RMK A01 T00361050  RH  053%=      5-min Rain = 0
KOD1 081443Z 34001KT 04/M05 A3049 RMK A01 T00361045  RH  055%=      5-min Rain = 0
KOD1 081444Z 35001KT 04/M04 A3049 RMK A01 T00361044  RH  056%=      5-min Rain = 0
KOD1 081445Z 35002KT 04/M04 A3049 RMK A01 T00361043  RH  056%=      5-min Rain = 0
KOD1 081446Z 35002KT 04/M04 A3049 RMK A01 T00361044  RH  056%=      5-min Rain = 0
KOD1 081447Z 36002KT 04/M05 A3049 RMK A01 T00351045  RH  056%=      5-min Rain = 0
KOD1 081448Z 35002KT 04/M05 A3049 RMK A01 T00351045  RH  056%=      5-min Rain = 0
KOD1 081449Z 35002KT 04/M04 A3049 RMK A01 T00351043  RH  056%=      5-min Rain = 0
KOD1 081450Z 02001KT 04/M04 A3049 RMK A01 T00361042  RH  057%=      5-min Rain = 0
KOD1 081451Z 06001KT 04/M05 A3049 RMK A01 T00361045  RH  056%=      5-min Rain = 0
KOD1 081452Z 01003KT 04/M05 A3049 RMK A01 T00361048  RH  054%=      5-min Rain = 0
KOD1 081453Z 00002KT 04/M05 A3049 RMK A01 T00371048  RH  054%=      5-min Rain = 0
KOD1 081454Z 36003KT 04/M05 A3049 RMK A01 T00371047  RH  054%=      5-min Rain = 0
KOD1 081455Z 34002KT 04/M05 A3049 RMK A01 T00371045  RH  055%=      5-min Rain = 0
KOD1 081456Z 35002KT 04/M04 A3049 RMK A01 T00371043  RH  056%=      5-min Rain = 0
KOD1 081457Z 34003KT 04/M05 A3049 RMK A01 T00371047  RH  054%=      5-min Rain = 0
KOD1 081458Z 33003KT 04/M05 A3049 RMK A01 T00371048  RH  054%=      5-min Rain = 0
KOD1 081459Z 33003KT 04/M05 A3049 RMK A01 T00371051  RH  053%=      5-min Rain = 0
KOD1 081500Z 33004KT 04/M05 A3049 RMK A01 T00371050  RH  053%=      5-min Rain = 0
KOD1 081501Z 33004KT 04/M05 A3049 RMK A01 T00371050  RH  053%=      5-min Rain = 0
KOD1 081502Z 33004KT 04/M05 A3049 RMK A01 T00371052  RH  052%=      5-min Rain = 0
KOD1 081503Z 35004KT 04/M05 A3049 RMK A01 T00371054  RH  051%=      5-min Rain = 0
KOD1 081504Z 36003KT 04/M06 A3049 RMK A01 T00371055  RH  051%=      5-min Rain = 0
KOD1 081505Z 35002KT 04/M06 A3049 RMK A01 T00371058  RH  050%=      5-min Rain = 0
KOD1 081506Z 33001KT 04/M06 A3049 RMK A01 T00361060  RH  050%=      5-min Rain = 0
KOD1 081507Z 34002KT 04/M06 A3049 RMK A01 T00361061  RH  049%=      5-min Rain = 0
KOD1 081508Z 36002KT 04/M06 A3049 RMK A01 T00361059  RH  050%=      5-min Rain = 0
KOD1 081509Z 00001KT 04/M06 A3049 RMK A01 T00371057  RH  050%=      5-min Rain = 0
KOD1 081510Z 02002KT 04/M06 A3049 RMK A01 T00371057  RH  050%=      5-min Rain = 0
KOD1 081511Z 04002KT 04/M06 A3049 RMK A01 T00371059  RH  049%=      5-min Rain = 0
KOD1 081512Z 03004KT 04/M06 A3049 RMK A01 T00371056  RH  051%=      5-min Rain = 0
KOD1 081513Z 00003KT 04/M05 A3049 RMK A01 T00381054  RH  051%=      5-min Rain = 0
KOD1 081514Z 00002KT 04/M06 A3049 RMK A01 T00391056  RH  050%=      5-min Rain = 0
KOD1 081515Z 00003KT 04/M06 A3049 RMK A01 T00381061  RH  048%=      5-min Rain = 0
KOD1 081516Z 36002KT 04/M06 A3049 RMK A01 T00381060  RH  049%=      5-min Rain = 0
KOD1 081517Z 01002KT 04/M06 A3049 RMK A01 T00381060  RH  049%=      5-min Rain = 0
KOD1 081518Z 01001KT 04/M06 A3049 RMK A01 T00391059  RH  049%=      5-min Rain = 0
KOD1 081519Z 04001KT 04/M06 A3049 RMK A01 T00391060  RH  048%=      5-min Rain = 0
KOD1 081520Z 05001KT 04/M06 A3049 RMK A01 T00391058  RH  049%=      5-min Rain = 0
KOD1 081521Z 04003KT 04/M06 A3049 RMK A01 T00391056  RH  050%=      5-min Rain = 0
KOD1 081522Z 03002KT 04/M06 A3048 RMK A01 T00391059  RH  049%=      5-min Rain = 0
KOD1 081523Z 03002KT 04/M06 A3048 RMK A01 T00391060  RH  049%=      5-min Rain = 0
KOD1 081524Z 02002KT 04/M06 A3049 RMK A01 T00391059  RH  049%=      5-min Rain = 0
KOD1 081525Z 00002KT 04/M06 A3049 RMK A01 T00391060  RH  048%=      5-min Rain = 0
KOD1 081526Z 34002KT 04/M06 A3049 RMK A01 T00381063  RH  048%=      5-min Rain = 0
KOD1 081527Z 31001KT 04/M06 A3048 RMK A01 T00381062  RH  048%=      5-min Rain = 0
KOD1 081528Z 33001KT 04/M06 A3048 RMK A01 T00381062  RH  048%=      5-min Rain = 0
KOD1 081529Z 33001KT 04/M06 A3048 RMK A01 T00391059  RH  049%=      5-min Rain = 0
KOD1 081530Z 01001KT 04/M06 A3049 RMK A01 T00391056  RH  050%=      5-min Rain = 0
KOD1 081531Z 03002KT 04/M05 A3048 RMK A01 T00401053  RH  051%=      5-min Rain = 0
KOD1 081532Z 03002KT 04/M06 A3048 RMK A01 T00401058  RH  049%=      5-min Rain = 0
KOD1 081533Z 03002KT 04/M06 A3048 RMK A01 T00401057  RH  049%=      5-min Rain = 0
KOD1 081534Z 04002KT 04/M06 A3048 RMK A01 T00391058  RH  049%=      5-min Rain = 0
KOD1 081535Z 05001KT 04/M06 A3048 RMK A01 T00391060  RH  048%=      5-min Rain = 0
KOD1 081536Z 07002KT 04/M06 A3048 RMK A01 T00391059  RH  049%=      5-min Rain = 0
KOD1 081537Z 08003KT 04/M06 A3048 RMK A01 T00401057  RH  049%=      5-min Rain = 0
KOD1 081538Z 10003KT 04/M06 A3048 RMK A01 T00401060  RH  048%=      5-min Rain = 0
KOD1 081539Z 10003KT 04/M06 A3048 RMK A01 T00391061  RH  048%=      5-min Rain = 0
KOD1 081540Z 11002KT 04/M06 A3048 RMK A01 T00391059  RH  049%=      5-min Rain = 0
KOD1 081541Z 13002KT 04/M06 A3048 RMK A01 T00401055  RH  050%=      5-min Rain = 0
KOD1 081542Z 13001KT 04/M06 A3048 RMK A01 T00401060  RH  048%=      5-min Rain = 0
KOD1 081543Z 11001KT 04/M06 A3048 RMK A01 T00391063  RH  047%=      5-min Rain = 0
KOD1 081544Z 12000KT 04/M06 A3048 RMK A01 T00391061  RH  048%=      5-min Rain = 0
KOD1 081545Z 15001KT 04/M06 A3048 RMK A01 T00401056  RH  050%=      5-min Rain = 0
KOD1 081546Z 15001KT 04/M06 A3048 RMK A01 T00401059  RH  048%=      5-min Rain = 0
KOD1 081547Z 16001KT 04/M06 A3048 RMK A01 T00411059  RH  048%=      5-min Rain = 0
KOD1 081548Z 15001KT 04/M06 A3048 RMK A01 T00401060  RH  048%=      5-min Rain = 0
KOD1 081549Z 16001KT 04/M06 A3048 RMK A01 T00411060  RH  048%=      5-min Rain = 0
KOD1 081550Z 21000KT 04/M06 A3048 RMK A01 T00401059  RH  048%=      5-min Rain = 0
KOD1 081551Z 00000KT 04/M06 A3048 RMK A01 T00411058  RH  049%=      5-min Rain = 0
KOD1 081552Z 27000KT 04/M06 A3048 RMK A01 T00411058  RH  048%=      5-min Rain = 0
KOD1 081553Z 27000KT 04/M06 A3048 RMK A01 T00411057  RH  049%=      5-min Rain = 0
KOD1 081554Z 00000KT 04/M06 A3048 RMK A01 T00421055  RH  049%=      5-min Rain = 0
KOD1 081555Z 00000KT 04/M06 A3048 RMK A01 T00421057  RH  048%=      5-min Rain = 0
KOD1 081556Z 29000KT 04/M06 A3048 RMK A01 T00431059  RH  048%=      5-min Rain = 0
KOD1 081557Z 00000KT 04/M06 A3048 RMK A01 T00431059  RH  048%=      5-min Rain = 0
KOD1 081558Z 00000KT 04/M06 A3048 RMK A01 T00431057  RH  048%=      5-min Rain = 0
KOD1 081559Z 00000KT 04/M06 A3048 RMK A01 T00441057  RH  048%=      5-min Rain = 0
KOD1 081600Z 16000KT 04/M06 A3048 RMK A01 T00441058  RH  048%=      5-min Rain = 0
KOD1 081601Z 00000KT 05/M06 A3048 RMK A01 T00451056  RH  048%=      5-min Rain = 0
KOD1 081602Z 06001KT 05/M06 A3048 RMK A01 T00451055  RH  048%=      5-min Rain = 0
KOD1 081603Z 05002KT 05/M06 A3048 RMK A01 T00451056  RH  048%=      5-min Rain = 0
KOD1 081604Z 05001KT 04/M06 A3048 RMK A01 T00441058  RH  047%=      5-min Rain = 0
KOD1 081605Z 14000KT 04/M06 A3048 RMK A01 T00441057  RH  048%=      5-min Rain = 0
KOD1 081606Z 13001KT 04/M06 A3048 RMK A01 T00441055  RH  048%=      5-min Rain = 0
KOD1 081607Z 12002KT 05/M06 A3047 RMK A01 T00451057  RH  048%=      5-min Rain = 0
KOD1 081608Z 13001KT 04/M06 A3047 RMK A01 T00441057  RH  048%=      5-min Rain = 0
KOD1 081609Z 17002KT 04/M05 A3047 RMK A01 T00441054  RH  049%=      5-min Rain = 0
KOD1 081610Z 16002KT 04/M06 A3047 RMK A01 T00441055  RH  049%=      5-min Rain = 0
KOD1 081611Z 12003KT 05/M06 A3046 RMK A01 T00451055  RH  048%=      5-min Rain = 0
KOD1 081612Z 11003KT 05/M05 A3046 RMK A01 T00461054  RH  048%=      5-min Rain = 0
KOD1 081613Z 11003KT 05/M06 A3047 RMK A01 T00461056  RH  047%=      5-min Rain = 0
KOD1 081614Z 10003KT 05/M06 A3047 RMK A01 T00461056  RH  047%=      5-min Rain = 0
KOD1 081615Z 11002KT 05/M06 A3047 RMK A01 T00471058  RH  047%=      5-min Rain = 0
KOD1 081616Z 11002KT 05/M06 A3047 RMK A01 T00461063  RH  045%=      5-min Rain = 0
KOD1 081617Z 10002KT 05/M06 A3047 RMK A01 T00461061  RH  046%=      5-min Rain = 0
KOD1 081618Z 09002KT 05/M06 A3047 RMK A01 T00461059  RH  046%=      5-min Rain = 0
KOD1 081619Z 10002KT 05/M06 A3046 RMK A01 T00461058  RH  047%=      5-min Rain = 0
KOD1 081620Z 11003KT 05/M06 A3046 RMK A01 T00461058  RH  047%=      5-min Rain = 0
KOD1 081621Z 15001KT 05/M06 A3046 RMK A01 T00451060  RH  046%=      5-min Rain = 0
KOD1 081622Z 15001KT 05/M06 A3046 RMK A01 T00451059  RH  047%=      5-min Rain = 0
KOD1 081623Z 17001KT 05/M06 A3046 RMK A01 T00461059  RH  046%=      5-min Rain = 0
KOD1 081624Z 16003KT 05/M06 A3046 RMK A01 T00461058  RH  047%=      5-min Rain = 0
KOD1 081625Z 18003KT 05/M05 A3046 RMK A01 T00471050  RH  049%=      5-min Rain = 0
KOD1 081626Z 17003KT 05/M05 A3046 RMK A01 T00481046  RH  051%=      5-min Rain = 0
KOD1 081627Z 12003KT 05/M05 A3046 RMK A01 T00481052  RH  048%=      5-min Rain = 0
KOD1 081628Z 12003KT 05/M06 A3046 RMK A01 T00491055  RH  047%=      5-min Rain = 0
KOD1 081629Z 17003KT 05/M05 A3046 RMK A01 T00501051  RH  048%=      5-min Rain = 0
KOD1 081630Z 21002KT 05/M05 A3046 RMK A01 T00501051  RH  048%=      5-min Rain = 0
KOD1 081631Z 20002KT 05/M05 A3046 RMK A01 T00491049  RH  049%=      5-min Rain = 0
KOD1 081632Z 15003KT 05/M05 A3046 RMK A01 T00501046  RH  050%=      5-min Rain = 0
KOD1 081633Z 19003KT 05/M05 A3046 RMK A01 T00501049  RH  049%=      5-min Rain = 0
KOD1 081634Z 17002KT 05/M05 A3046 RMK A01 T00491052  RH  048%=      5-min Rain = 0
KOD1 081635Z 15002KT 05/M05 A3046 RMK A01 T00491048  RH  049%=      5-min Rain = 0
KOD1 081636Z 20002KT 05/M05 A3046 RMK A01 T00501046  RH  050%=      5-min Rain = 0
KOD1 081637Z 19003KT 05/M05 A3046 RMK A01 T00501045  RH  050%=      5-min Rain = 0
KOD1 081638Z 18003KT 05/M05 A3046 RMK A01 T00491049  RH  049%=      5-min Rain = 0
KOD1 081639Z 18004KT 05/M05 A3046 RMK A01 T00491046  RH  050%=      5-min Rain = 0
KOD1 081640Z 19003KT 05/M05 A3046 RMK A01 T00481048  RH  050%=      5-min Rain = 0
KOD1 081641Z 20002KT 05/M05 A3046 RMK A01 T00481051  RH  049%=      5-min Rain = 0
KOD1 081642Z 21002KT 05/M05 A3046 RMK A01 T00471052  RH  049%=      5-min Rain = 0
KOD1 081643Z 21000KT 05/M05 A3046 RMK A01 T00471051  RH  049%=      5-min Rain = 0
KOD1 081644Z 22002KT 05/M05 A3046 RMK A01 T00481049  RH  049%=      5-min Rain = 0
KOD1 081645Z 20003KT 05/M05 A3046 RMK A01 T00491047  RH  050%=      5-min Rain = 0
KOD1 081646Z 20002KT 05/M05 A3046 RMK A01 T00491049  RH  049%=      5-min Rain = 0
KOD1 081647Z 20001KT 05/M05 A3046 RMK A01 T00481053  RH  048%=      5-min Rain = 0
KOD1 081648Z 20003KT 05/M05 A3046 RMK A01 T00491049  RH  049%=      5-min Rain = 0
KOD1 081649Z 20004KT 05/M05 A3046 RMK A01 T00491046  RH  050%=      5-min Rain = 0
KOD1 081650Z 19003KT 05/M05 A3046 RMK A01 T00491048  RH  049%=      5-min Rain = 0
KOD1 081651Z 21002KT 05/M05 A3046 RMK A01 T00491049  RH  049%=      5-min Rain = 0
KOD1 081652Z 21003KT 05/M05 A3046 RMK A01 T00491050  RH  048%=      5-min Rain = 0
KOD1 081653Z 21002KT 05/M05 A3046 RMK A01 T00491049  RH  049%=      5-min Rain = 0
KOD1 081654Z 19004KT 05/M05 A3046 RMK A01 T00501047  RH  050%=      5-min Rain = 0
KOD1 081655Z 19003KT 05/M04 A3046 RMK A01 T00501044  RH  051%=      5-min Rain = 0
KOD1 081656Z 18003KT 05/M05 A3045 RMK A01 T00511047  RH  049%=      5-min Rain = 0
KOD1 081657Z 18004KT 05/M05 A3045 RMK A01 T00511047  RH  049%=      5-min Rain = 0
KOD1 081658Z 19003KT 05/M05 A3045 RMK A01 T00511045  RH  050%=      5-min Rain = 0
KOD1 081659Z 19003KT 05/M04 A3045 RMK A01 T00521039  RH  052%=      5-min Rain = 0
KOD1 081700Z 19004KT 05/M04 A3045 RMK A01 T00541039  RH  051%=      5-min Rain = 0
KOD1 081701Z 20003KT 05/M04 A3045 RMK A01 T00541043  RH  050%=      5-min Rain = 0
KOD1 081702Z 18003KT 05/M05 A3045 RMK A01 T00531050  RH  048%=      5-min Rain = 0
KOD1 081703Z 21003KT 05/M05 A3045 RMK A01 T00531049  RH  048%=      5-min Rain = 0
KOD1 081704Z 23002KT 05/M05 A3045 RMK A01 T00521049  RH  048%=      5-min Rain = 0
KOD1 081705Z 22001KT 05/M05 A3045 RMK A01 T00521051  RH  047%=      5-min Rain = 0
KOD1 081706Z 16003KT 05/M05 A3045 RMK A01 T00521052  RH  047%=      5-min Rain = 0
KOD1 081707Z 15003KT 05/M05 A3045 RMK A01 T00521052  RH  047%=      5-min Rain = 0
KOD1 081708Z 20002KT 05/M05 A3045 RMK A01 T00511051  RH  047%=      5-min Rain = 0
KOD1 081709Z 20002KT 05/M05 A3045 RMK A01 T00521052  RH  047%=      5-min Rain = 0
KOD1 081710Z 18003KT 05/M05 A3045 RMK A01 T00521051  RH  047%=      5-min Rain = 0
KOD1 081711Z 18002KT 05/M05 A3045 RMK A01 T00511054  RH  047%=      5-min Rain = 0
KOD1 081712Z 19002KT 05/M05 A3044 RMK A01 T00521048  RH  048%=      5-min Rain = 0
KOD1 081713Z 20001KT 05/M05 A3044 RMK A01 T00531049  RH  048%=      5-min Rain = 0
KOD1 081714Z 23001KT 05/M05 A3044 RMK A01 T00531050  RH  047%=      5-min Rain = 0
KOD1 081715Z 21000KT 05/M05 A3044 RMK A01 T00531052  RH  047%=      5-min Rain = 0
KOD1 081716Z 15001KT 05/M05 A3044 RMK A01 T00531050  RH  047%=      5-min Rain = 0
KOD1 081717Z 15003KT 05/M05 A3044 RMK A01 T00541045  RH  049%=      5-min Rain = 0
KOD1 081718Z 13002KT 06/M04 A3044 RMK A01 T00551041  RH  050%=      5-min Rain = 0
KOD1 081719Z 15002KT 06/M04 A3044 RMK A01 T00561041  RH  050%=      5-min Rain = 0
KOD1 081720Z 18003KT 06/M04 A3044 RMK A01 T00561043  RH  049%=      5-min Rain = 0
KOD1 081721Z 18005KT 06/M04 A3044 RMK A01 T00571036  RH  051%=      5-min Rain = 0
KOD1 081722Z 18003KT 06/M04 A3044 RMK A01 T00561039  RH  050%=      5-min Rain = 0
KOD1 081723Z 20003KT 06/M04 A3044 RMK A01 T00561041  RH  050%=      5-min Rain = 0
KOD1 081724Z 20003KT 06/M04 A3044 RMK A01 T00561037  RH  051%=      5-min Rain = 0
KOD1 081725Z 16004KT 06/M04 A3044 RMK A01 T00581035  RH  051%=      5-min Rain = 0
KOD1 081726Z 17004KT 06/M04 A3043 RMK A01 T00571042  RH  049%=      5-min Rain = 0
KOD1 081727Z 18006KT 06/M04 A3043 RMK A01 T00571038  RH  050%=      5-min Rain = 0
KOD1 081728Z 18004KT 06/M04 A3043 RMK A01 T00561042  RH  049%=      5-min Rain = 0
KOD1 081729Z 17003KT 06/M04 A3043 RMK A01 T00561043  RH  049%=      5-min Rain = 0
KOD1 081730Z 16003KT 06/M04 A3043 RMK A01 T00561044  RH  049%=      5-min Rain = 0
KOD1 081731Z 15003KT 06/M04 A3044 RMK A01 T00561044  RH  049%=      5-min Rain = 0
KOD1 081732Z 14002KT 06/M05 A3044 RMK A01 T00561045  RH  048%=      5-min Rain = 0
KOD1 081733Z 16002KT 06/M05 A3043 RMK A01 T00561046  RH  048%=      5-min Rain = 0
KOD1 081734Z 15001KT 06/M04 A3043 RMK A01 T00571041  RH  050%=      5-min Rain = 0
KOD1 081735Z 19001KT 06/M04 A3043 RMK A01 T00581038  RH  050%=      5-min Rain = 0
KOD1 081736Z 19002KT 06/M04 A3043 RMK A01 T00581043  RH  048%=      5-min Rain = 0
KOD1 081737Z 13004KT 06/M04 A3043 RMK A01 T00581041  RH  049%=      5-min Rain = 0
KOD1 081738Z 13005KT 06/M04 A3043 RMK A01 T00591036  RH  050%=      5-min Rain = 0
KOD1 081739Z 15004KT 06/M04 A3043 RMK A01 T00601038  RH  049%=      5-min Rain = 0
KOD1 081740Z 16003KT 06/M04 A3043 RMK A01 T00611035  RH  050%=      5-min Rain = 0
KOD1 081741Z 18003KT 06/M04 A3043 RMK A01 T00611039  RH  049%=      5-min Rain = 0
KOD1 081742Z 16002KT 06/M04 A3043 RMK A01 T00601044  RH  047%=      5-min Rain = 0
KOD1 081743Z 15001KT 06/M04 A3043 RMK A01 T00601043  RH  048%=      5-min Rain = 0
KOD1 081744Z 16002KT 06/M04 A3043 RMK A01 T00611038  RH  049%=      5-min Rain = 0
KOD1 081745Z 16002KT 06/M04 A3043 RMK A01 T00611041  RH  048%=      5-min Rain = 0
KOD1 081746Z 17001KT 06/M04 A3043 RMK A01 T00611041  RH  048%=      5-min Rain = 0
KOD1 081747Z 19001KT 06/M04 A3043 RMK A01 T00601044  RH  047%=      5-min Rain = 0
KOD1 081748Z 25002KT 06/M04 A3043 RMK A01 T00611039  RH  049%=      5-min Rain = 0
KOD1 081749Z 25003KT 06/M04 A3043 RMK A01 T00611038  RH  049%=      5-min Rain = 0
KOD1 081750Z 24002KT 06/M04 A3043 RMK A01 T00601041  RH  048%=      5-min Rain = 0
KOD1 081751Z 21003KT 06/M04 A3043 RMK A01 T00591042  RH  048%=      5-min Rain = 0
KOD1 081752Z 22003KT 06/M04 A3042 RMK A01 T00591037  RH  050%=      5-min Rain = 0
KOD1 081753Z 23003KT 06/M04 A3042 RMK A01 T00591040  RH  049%=      5-min Rain = 0
KOD1 081754Z 23003KT 06/M04 A3042 RMK A01 T00591042  RH  048%=      5-min Rain = 0
KOD1 081755Z 22003KT 06/M04 A3042 RMK A01 T00581044  RH  048%=      5-min Rain = 0
KOD1 081756Z 20002KT 06/M04 A3042 RMK A01 T00571044  RH  048%=      5-min Rain = 0
KOD1 081757Z 20003KT 06/M04 A3042 RMK A01 T00591037  RH  050%=      5-min Rain = 0
KOD1 081758Z 21002KT 06/M04 A3042 RMK A01 T00601040  RH  049%=      5-min Rain = 0
KOD1 081759Z 17003KT 06/M04 A3042 RMK A01 T00601038  RH  049%=      5-min Rain = 0
KOD1 081800Z 15004KT 06/M03 A3042 RMK A01 T00611030  RH  052%=      5-min Rain = 0
KOD1 081801Z 15003KT 06/M04 A3042 RMK A01 T00611037  RH  049%=      5-min Rain = 0
KOD1 081802Z 14002KT 06/M04 A3042 RMK A01 T00601038  RH  049%=      5-min Rain = 0
KOD1 081803Z 15002KT 06/M03 A3042 RMK A01 T00611034  RH  051%=      5-min Rain = 0
KOD1 081804Z 17001KT 06/M04 A3042 RMK A01 T00611036  RH  050%=      5-min Rain = 0
KOD1 081805Z 15002KT 06/M04 A3042 RMK A01 T00621036  RH  049%=      5-min Rain = 0
KOD1 081806Z 18005KT 06/M03 A3042 RMK A01 T00621033  RH  050%=      5-min Rain = 0
KOD1 081807Z 17003KT 06/M04 A3042 RMK A01 T00611036  RH  050%=      5-min Rain = 0
KOD1 081808Z 19002KT 06/M04 A3042 RMK A01 T00601035  RH  050%=      5-min Rain = 0
KOD1 081809Z 20003KT 06/M04 A3041 RMK A01 T00601037  RH  050%=      5-min Rain = 0
KOD1 081810Z 19002KT 06/M04 A3041 RMK A01 T00601036  RH  050%=      5-min Rain = 0
KOD1 081816Z 24000KT 06/M03 A3041 RMK A01 T00621034  RH  050%=      5-min Rain = 0
KOD1 081817Z 19000KT 06/M03 A3041 RMK A01 T00631034  RH  050%=      5-min Rain = 0
KOD1 081818Z 20000KT 06/M04 A3041 RMK A01 T00641037  RH  049%=      5-min Rain = 0
KOD1 081819Z 22002KT 06/M04 A3041 RMK A01 T00631037  RH  049%=      5-min Rain = 0
KOD1 081820Z 20001KT 06/M03 A3041 RMK A01 T00631034  RH  050%=      5-min Rain = 0
KOD1 081821Z 17003KT 06/M03 A3041 RMK A01 T00641030  RH  051%=      5-min Rain = 0
KOD1 081822Z 14003KT 06/M03 A3041 RMK A01 T00641031  RH  051%=      5-min Rain = 0
KOD1 081823Z 15003KT 06/M03 A3041 RMK A01 T00641034  RH  050%=      5-min Rain = 0
KOD1 081824Z 16003KT 06/M03 A3041 RMK A01 T00631033  RH  050%=      5-min Rain = 0
KOD1 081825Z 17004KT 06/M03 A3041 RMK A01 T00641025  RH  053%=      5-min Rain = 0
KOD1 081826Z 17003KT 06/M03 A3041 RMK A01 T00641027  RH  052%=      5-min Rain = 0
KOD1 081827Z 16002KT 06/M03 A3041 RMK A01 T00641031  RH  050%=      5-min Rain = 0
KOD1 081828Z 18002KT 06/M03 A3041 RMK A01 T00641034  RH  049%=      5-min Rain = 0
KOD1 081829Z 17002KT 06/M03 A3041 RMK A01 T00641033  RH  050%=      5-min Rain = 0
KOD1 081830Z 18002KT 06/M03 A304 RMK A01 T00631032  RH  050%=      5-min Rain = 0
KOD1 081831Z 21001KT 06/M03 A304 RMK A01 T00641033  RH  050%=      5-min Rain = 0
KOD1 081832Z 16001KT 06/M03 A304 RMK A01 T00641033  RH  050%=      5-min Rain = 0
KOD1 081833Z 15001KT 06/M03 A304 RMK A01 T00641029  RH  051%=      5-min Rain = 0
KOD1 081834Z 15001KT 07/M03 A304 RMK A01 T00651030  RH  050%=      5-min Rain = 0
KOD1 081835Z 14002KT 07/M03 A304 RMK A01 T00661030  RH  050%=      5-min Rain = 0
KOD1 081836Z 20002KT 07/M03 A304 RMK A01 T00671025  RH  052%=      5-min Rain = 0
KOD1 081837Z 22002KT 07/M03 A304 RMK A01 T00671027  RH  051%=      5-min Rain = 0
KOD1 081838Z 24003KT 07/M03 A304 RMK A01 T00661030  RH  050%=      5-min Rain = 0
KOD1 081839Z 24002KT 06/M04 A304 RMK A01 T00641036  RH  049%=      5-min Rain = 0
KOD1 081840Z 23002KT 06/M03 A304 RMK A01 T00641034  RH  049%=      5-min Rain = 0
KOD1 081841Z 22003KT 07/M03 A304 RMK A01 T00651033  RH  050%=      5-min Rain = 0
KOD1 081842Z 21002KT 06/M04 A304 RMK A01 T00641035  RH  049%=      5-min Rain = 0
KOD1 081843Z 22001KT 07/M03 A3039 RMK A01 T00651034  RH  049%=      5-min Rain = 0
KOD1 081844Z 18000KT 07/M03 A3039 RMK A01 T00651033  RH  049%=      5-min Rain = 0
KOD1 081845Z 16000KT 07/M03 A3039 RMK A01 T00661034  RH  049%=      5-min Rain = 0
KOD1 081846Z 19002KT 07/M03 A3039 RMK A01 T00671031  RH  050%=      5-min Rain = 0
KOD1 081847Z 20004KT 07/M03 A3039 RMK A01 T00671029  RH  050%=      5-min Rain = 0
KOD1 081848Z 20003KT 07/M03 A3039 RMK A01 T00671031  RH  050%=      5-min Rain = 0
KOD1 081849Z 22003KT 07/M03 A3039 RMK A01 T00671028  RH  051%=      5-min Rain = 0
KOD1 081850Z 23002KT 07/M03 A3039 RMK A01 T00661033  RH  049%=      5-min Rain = 0
KOD1 081851Z 26002KT 07/M04 A3039 RMK A01 T00651036  RH  048%=      5-min Rain = 0
KOD1 081852Z 24002KT 07/M04 A3039 RMK A01 T00651037  RH  048%=      5-min Rain = 0
KOD1 081853Z 19001KT 06/M04 A3039 RMK A01 T00641035  RH  049%=      5-min Rain = 0
KOD1 081854Z 20000KT 07/M03 A3039 RMK A01 T00661031  RH  050%=      5-min Rain = 0
KOD1 081855Z 18002KT 07/M03 A3039 RMK A01 T00671031  RH  050%=      5-min Rain = 0
KOD1 081856Z 17002KT 07/M03 A3039 RMK A01 T00671034  RH  048%=      5-min Rain = 0
KOD1 081857Z 20001KT 07/M03 A3039 RMK A01 T00681030  RH  050%=      5-min Rain = 0
KOD1 081858Z 21001KT 07/M03 A3039 RMK A01 T00681030  RH  050%=      5-min Rain = 0
KOD1 081859Z 19002KT 07/M03 A3039 RMK A01 T00681030  RH  050%=      5-min Rain = 0
KOD1 081900Z 20003KT 07/M03 A3039 RMK A01 T00681026  RH  051%=      5-min Rain = 0
KOD1 081901Z 24002KT 07/M03 A3039 RMK A01 T00691026  RH  051%=      5-min Rain = 0
KOD1 081902Z 24003KT 07/M03 A3039 RMK A01 T00681034  RH  048%=      5-min Rain = 0
KOD1 081903Z 24001KT 07/M04 A3039 RMK A01 T00671037  RH  048%=      5-min Rain = 0
KOD1 081904Z 25002KT 07/M04 A3039 RMK A01 T00671035  RH  048%=      5-min Rain = 0
KOD1 081905Z 25002KT 07/M03 A3039 RMK A01 T00681033  RH  048%=      5-min Rain = 0
KOD1 081906Z 26002KT 07/M03 A3039 RMK A01 T00681033  RH  048%=      5-min Rain = 0
KOD1 081907Z 24001KT 07/M03 A3039 RMK A01 T00681033  RH  048%=      5-min Rain = 0
KOD1 081908Z 21002KT 07/M03 A3039 RMK A01 T00681034  RH  048%=      5-min Rain = 0
KOD1 081909Z 21001KT 07/M03 A3039 RMK A01 T00691033  RH  048%=      5-min Rain = 0
KOD1 081910Z 20001KT 07/M04 A3039 RMK A01 T00681036  RH  048%=      5-min Rain = 0
KOD1 081911Z 21000KT 07/M04 A3038 RMK A01 T00681035  RH  048%=      5-min Rain = 0
KOD1 081912Z 29002KT 07/M03 A3038 RMK A01 T00691033  RH  048%=      5-min Rain = 0
KOD1 081913Z 30002KT 07/M03 A3038 RMK A01 T00711029  RH  049%=      5-min Rain = 0
KOD1 081914Z 31002KT 07/M03 A3038 RMK A01 T00711034  RH  047%=      5-min Rain = 0
KOD1 081915Z 32001KT 07/M03 A3038 RMK A01 T00711031  RH  048%=      5-min Rain = 0
KOD1 081916Z 36001KT 07/M03 A3038 RMK A01 T00721031  RH  048%=      5-min Rain = 0
KOD1 081917Z 17002KT 07/M03 A3038 RMK A01 T00731028  RH  049%=      5-min Rain = 0
KOD1 081918Z 17003KT 07/M02 A3038 RMK A01 T00741021  RH  051%=      5-min Rain = 0
KOD1 081919Z 18003KT 07/M03 A3038 RMK A01 T00731029  RH  048%=      5-min Rain = 0
KOD1 081920Z 16003KT 07/M03 A3038 RMK A01 T00721031  RH  048%=      5-min Rain = 0
KOD1 081921Z 17002KT 07/M03 A3038 RMK A01 T00721028  RH  049%=      5-min Rain = 0
KOD1 081922Z 19003KT 07/M03 A3038 RMK A01 T00721027  RH  049%=      5-min Rain = 0
KOD1 081923Z 18002KT 07/M03 A3038 RMK A01 T00711028  RH  049%=      5-min Rain = 0
KOD1 081924Z 18001KT 07/M03 A3038 RMK A01 T00711026  RH  050%=      5-min Rain = 0
KOD1 081925Z 18004KT 07/M02 A3038 RMK A01 T00721023  RH  051%=      5-min Rain = 0
KOD1 081926Z 16004KT 07/M03 A3038 RMK A01 T00721026  RH  050%=      5-min Rain = 0
KOD1 081927Z 16003KT 07/M03 A3038 RMK A01 T00711028  RH  049%=      5-min Rain = 0
KOD1 081928Z 16003KT 07/M03 A3038 RMK A01 T00711026  RH  050%=      5-min Rain = 0
KOD1 081929Z 18004KT 07/M02 A3038 RMK A01 T00721021  RH  052%=      5-min Rain = 0
KOD1 081930Z 17004KT 07/M02 A3038 RMK A01 T00721018  RH  053%=      5-min Rain = 0
KOD1 081931Z 18004KT 07/M02 A3037 RMK A01 T00731018  RH  052%=      5-min Rain = 0
KOD1 081932Z 20004KT 07/M02 A3037 RMK A01 T00731022  RH  051%=      5-min Rain = 0
KOD1 081933Z 18003KT 07/M03 A3037 RMK A01 T00711027  RH  050%=      5-min Rain = 0
KOD1 081934Z 16003KT 07/M03 A3037 RMK A01 T00711028  RH  049%=      5-min Rain = 0
KOD1 081935Z 19003KT 07/M03 A3037 RMK A01 T00701029  RH  049%=      5-min Rain = 0
KOD1 081936Z 18003KT 07/M02 A3037 RMK A01 T00711024  RH  051%=      5-min Rain = 0
KOD1 081937Z 18004KT 07/M02 A3037 RMK A01 T00721023  RH  051%=      5-min Rain = 0
KOD1 081938Z 21004KT 07/M02 A3037 RMK A01 T00731020  RH  052%=      5-min Rain = 0
KOD1 081939Z 22004KT 07/M02 A3037 RMK A01 T00731023  RH  051%=      5-min Rain = 0
KOD1 081940Z 22004KT 07/M03 A3037 RMK A01 T00731025  RH  050%=      5-min Rain = 0
KOD1 081941Z 23003KT 07/M03 A3037 RMK A01 T00731026  RH  049%=      5-min Rain = 0
KOD1 081942Z 20002KT 07/M03 A3037 RMK A01 T00721027  RH  049%=      5-min Rain = 0
KOD1 081943Z 20002KT 07/M02 A3037 RMK A01 T00731024  RH  050%=      5-min Rain = 0
KOD1 081944Z 21002KT 07/M03 A3037 RMK A01 T00731025  RH  050%=      5-min Rain = 0
KOD1 081945Z 20002KT 07/M03 A3037 RMK A01 T00731027  RH  049%=      5-min Rain = 0
KOD1 081946Z 20002KT 07/M03 A3037 RMK A01 T00731030  RH  048%=      5-min Rain = 0
KOD1 081947Z 17002KT 07/M03 A3037 RMK A01 T00721030  RH  048%=      5-min Rain = 0
KOD1 081948Z 20002KT 07/M03 A3037 RMK A01 T00731027  RH  049%=      5-min Rain = 0
KOD1 081949Z 24004KT 07/M03 A3037 RMK A01 T00741025  RH  049%=      5-min Rain = 0
KOD1 081950Z 23004KT 07/M03 A3037 RMK A01 T00731029  RH  048%=      5-min Rain = 0
KOD1 081951Z 21003KT 07/M03 A3037 RMK A01 T00711032  RH  048%=      5-min Rain = 0
KOD1 081952Z 23004KT 07/M03 A3037 RMK A01 T00721025  RH  050%=      5-min Rain = 0
KOD1 081953Z 21006KT 07/M02 A3037 RMK A01 T00731020  RH  052%=      5-min Rain = 0
KOD1 081954Z 21005KT 07/M02 A3037 RMK A01 T00731023  RH  051%=      5-min Rain = 0
KOD1 081955Z 21003KT 07/M02 A3037 RMK A01 T00731018  RH  052%=      5-min Rain = 0
KOD1 081956Z 21003KT 07/M02 A3037 RMK A01 T00741022  RH  051%=      5-min Rain = 0
KOD1 081957Z 21005KT 07/M02 A3037 RMK A01 T00741017  RH  053%=      5-min Rain = 0
KOD1 081958Z 21004KT 07/M02 A3037 RMK A01 T00741024  RH  050%=      5-min Rain = 0
KOD1 081959Z 21003KT 07/M03 A3037 RMK A01 T00731027  RH  049%=      5-min Rain = 0
KOD1 082000Z 21003KT 07/M03 A3037 RMK A01 T00731025  RH  050%=      5-min Rain = 0
KOD1 082001Z 22003KT 07/M03 A3037 RMK A01 T00721029  RH  049%=      5-min Rain = 0
KOD1 082002Z 23002KT 07/M03 A3036 RMK A01 T00721029  RH  049%=      5-min Rain = 0
KOD1 082003Z 21003KT 07/M02 A3036 RMK A01 T00721024  RH  051%=      5-min Rain = 0
KOD1 082004Z 21002KT 07/M03 A3036 RMK A01 T00721028  RH  049%=      5-min Rain = 0
KOD1 082005Z 21002KT 07/M03 A3036 RMK A01 T00711029  RH  049%=      5-min Rain = 0
KOD1 082006Z 23003KT 07/M02 A3036 RMK A01 T00721024  RH  050%=      5-min Rain = 0
KOD1 082007Z 20003KT 07/M02 A3036 RMK A01 T00731024  RH  050%=      5-min Rain = 0
KOD1 082008Z 23004KT 07/M03 A3036 RMK A01 T00731025  RH  050%=      5-min Rain = 0
KOD1 082009Z 25003KT 07/M02 A3036 RMK A01 T00741024  RH  050%=      5-min Rain = 0
KOD1 082010Z 23003KT 08/M02 A3036 RMK A01 T00751020  RH  051%=      5-min Rain = 0
KOD1 082011Z 24004KT 08/M02 A3036 RMK A01 T00751018  RH  052%=      5-min Rain = 0
KOD1 082012Z 24003KT 08/M02 A3036 RMK A01 T00751020  RH  051%=      5-min Rain = 0
KOD1 082013Z 27003KT 08/M02 A3036 RMK A01 T00761019  RH  051%=      5-min Rain = 0
KOD1 082014Z 27004KT 08/M03 A3036 RMK A01 T00751025  RH  049%=      5-min Rain = 0
KOD1 082015Z 29003KT 08/M03 A3036 RMK A01 T00751025  RH  049%=      5-min Rain = 0
KOD1 082016Z 29002KT 07/M03 A3036 RMK A01 T00741027  RH  048%=      5-min Rain = 0
KOD1 082017Z 33001KT 07/M03 A3036 RMK A01 T00741029  RH  048%=      5-min Rain = 0
KOD1 082018Z 35001KT 07/M03 A3036 RMK A01 T00741028  RH  048%=      5-min Rain = 0
KOD1 082019Z 34000KT 08/M03 A3036 RMK A01 T00751026  RH  049%=      5-min Rain = 0
KOD1 082020Z 11000KT 08/M03 A3036 RMK A01 T00751027  RH  048%=      5-min Rain = 0
KOD1 082021Z 17001KT 08/M02 A3036 RMK A01 T00761024  RH  049%=      5-min Rain = 0
KOD1 082022Z 21000KT 08/M02 A3036 RMK A01 T00771021  RH  050%=      5-min Rain = 0
KOD1 082023Z 22002KT 08/M02 A3036 RMK A01 T00781017  RH  051%=      5-min Rain = 0
KOD1 082024Z 22004KT 08/M02 A3036 RMK A01 T00781016  RH  051%=      5-min Rain = 0
KOD1 082025Z 21003KT 08/M03 A3035 RMK A01 T00761025  RH  049%=      5-min Rain = 0
KOD1 082026Z 21003KT 08/M02 A3035 RMK A01 T00761024  RH  049%=      5-min Rain = 0
KOD1 082027Z 27003KT 08/M02 A3035 RMK A01 T00761022  RH  050%=      5-min Rain = 0
KOD1 082028Z 27003KT 08/M02 A3035 RMK A01 T00761023  RH  049%=      5-min Rain = 0
KOD1 082029Z 26002KT 08/M02 A3035 RMK A01 T00761024  RH  049%=      5-min Rain = 0
KOD1 082030Z 23001KT 08/M02 A3035 RMK A01 T00761024  RH  049%=      5-min Rain = 0
KOD1 082031Z 24002KT 08/M03 A3035 RMK A01 T00761025  RH  049%=      5-min Rain = 0
KOD1 082032Z 22003KT 08/M02 A3035 RMK A01 T00761020  RH  051%=      5-min Rain = 0
KOD1 082033Z 24003KT 08/M02 A3035 RMK A01 T00761022  RH  050%=      5-min Rain = 0
KOD1 082034Z 24003KT 08/M02 A3035 RMK A01 T00761024  RH  049%=      5-min Rain = 0
KOD1 082035Z 23002KT 08/M02 A3035 RMK A01 T00761021  RH  050%=      5-min Rain = 0
KOD1 082036Z 21001KT 08/M02 A3035 RMK A01 T00761021  RH  050%=      5-min Rain = 0
KOD1 082037Z 20001KT 08/M02 A3035 RMK A01 T00761024  RH  049%=      5-min Rain = 0
KOD1 082038Z 16001KT 08/M02 A3035 RMK A01 T00761023  RH  050%=      5-min Rain = 0
KOD1 082039Z 15002KT 08/M02 A3035 RMK A01 T00771021  RH  050%=      5-min Rain = 0
KOD1 082040Z 16002KT 08/M02 A3035 RMK A01 T00771022  RH  050%=      5-min Rain = 0
KOD1 082041Z 15002KT 08/M02 A3035 RMK A01 T00771020  RH  050%=      5-min Rain = 0
KOD1 082042Z 16002KT 08/M02 A3034 RMK A01 T00771019  RH  051%=      5-min Rain = 0
KOD1 082043Z 17003KT 08/M02 A3034 RMK A01 T00781017  RH  051%=      5-min Rain = 0
KOD1 082044Z 19002KT 08/M02 A3034 RMK A01 T00771021  RH  050%=      5-min Rain = 0
KOD1 082045Z 17002KT 08/M02 A3034 RMK A01 T00771022  RH  049%=      5-min Rain = 0
KOD1 082046Z 18002KT 08/M02 A3034 RMK A01 T00771022  RH  050%=      5-min Rain = 0
KOD1 082047Z 18001KT 08/M02 A3034 RMK A01 T00771020  RH  050%=      5-min Rain = 0
KOD1 082048Z 16002KT 08/M02 A3034 RMK A01 T00771022  RH  050%=      5-min Rain = 0
KOD1 082049Z 18002KT 08/M02 A3034 RMK A01 T00771021  RH  050%=      5-min Rain = 0
KOD1 082050Z 16001KT 08/M02 A3034 RMK A01 T00781022  RH  049%=      5-min Rain = 0
KOD1 082051Z 17001KT 08/M02 A3034 RMK A01 T00781020  RH  050%=      5-min Rain = 0
KOD1 082052Z 20001KT 08/M02 A3034 RMK A01 T00781024  RH  049%=      5-min Rain = 0
KOD1 082053Z 19001KT 08/M02 A3034 RMK A01 T00771022  RH  049%=      5-min Rain = 0
KOD1 082054Z 18000KT 08/M02 A3034 RMK A01 T00781021  RH  050%=      5-min Rain = 0
KOD1 082055Z 21002KT 08/M02 A3034 RMK A01 T00791021  RH  049%=      5-min Rain = 0
KOD1 082056Z 23002KT 08/M02 A3034 RMK A01 T00791021  RH  049%=      5-min Rain = 0
KOD1 082057Z 22002KT 08/M02 A3034 RMK A01 T00781020  RH  050%=      5-min Rain = 0
KOD1 082058Z 22003KT 08/M02 A3034 RMK A01 T00781020  RH  050%=      5-min Rain = 0
KOD1 082059Z 23002KT 08/M02 A3034 RMK A01 T00781020  RH  050%=      5-min Rain = 0
KOD1 082100Z 24002KT 08/M02 A3034 RMK A01 T00781021  RH  050%=      5-min Rain = 0
KOD1 082101Z 23002KT 08/M02 A3034 RMK A01 T00781022  RH  049%=      5-min Rain = 0
KOD1 082102Z 21003KT 08/M02 A3034 RMK A01 T00781021  RH  049%=      5-min Rain = 0
KOD1 082103Z 19003KT 08/M02 A3034 RMK A01 T00781019  RH  050%=      5-min Rain = 0
KOD1 082104Z 19003KT 08/M02 A3034 RMK A01 T00781016  RH  051%=      5-min Rain = 0
KOD1 082105Z 18004KT 08/M01 A3034 RMK A01 T00791014  RH  052%=      5-min Rain = 0
KOD1 082106Z 19003KT 08/M02 A3034 RMK A01 T00791017  RH  051%=      5-min Rain = 0
KOD1 082107Z 19004KT 08/M02 A3034 RMK A01 T00791017  RH  051%=      5-min Rain = 0
KOD1 082108Z 19004KT 08/M02 A3034 RMK A01 T00791017  RH  051%=      5-min Rain = 0
KOD1 082109Z 20004KT 08/M02 A3034 RMK A01 T00791017  RH  051%=      5-min Rain = 0
KOD1 082110Z 20003KT 08/M02 A3034 RMK A01 T00791016  RH  051%=      5-min Rain = 0
KOD1 082111Z 20003KT 08/M02 A3033 RMK A01 T00781019  RH  050%=      5-min Rain = 0
KOD1 082112Z 20004KT 08/M02 A3033 RMK A01 T00791016  RH  051%=      5-min Rain = 0
KOD1 082113Z 20004KT 08/M02 A3033 RMK A01 T00791017  RH  051%=      5-min Rain = 0
KOD1 082114Z 21003KT 08/M02 A3033 RMK A01 T00781018  RH  051%=      5-min Rain = 0
KOD1 082115Z 21004KT 08/M02 A3033 RMK A01 T00791016  RH  051%=      5-min Rain = 0
KOD1 082116Z 22004KT 08/M01 A3033 RMK A01 T00791013  RH  052%=      5-min Rain = 0
KOD1 082117Z 22004KT 08/M01 A3033 RMK A01 T00801007  RH  054%=      5-min Rain = 0
KOD1 082118Z 20005KT 08/M01 A3033 RMK A01 T00811011  RH  053%=      5-min Rain = 0
KOD1 082119Z 20005KT 08/M01 A3033 RMK A01 T00811012  RH  052%=      5-min Rain = 0
KOD1 082120Z 20004KT 08/M02 A3033 RMK A01 T00801015  RH  051%=      5-min Rain = 0
KOD1 082121Z 20005KT 08/M02 A3033 RMK A01 T00791015  RH  051%=      5-min Rain = 0
KOD1 082122Z 19005KT 08/M01 A3033 RMK A01 T00801009  RH  053%=      5-min Rain = 0
KOD1 082123Z 18005KT 08/M01 A3033 RMK A01 T00811012  RH  052%=      5-min Rain = 0
KOD1 082124Z 17004KT 08/M02 A3033 RMK A01 T00801015  RH  051%=      5-min Rain = 0
KOD1 082125Z 17003KT 08/M02 A3033 RMK A01 T00801015  RH  051%=      5-min Rain = 0
KOD1 082126Z 20004KT 08/M01 A3033 RMK A01 T00801014  RH  051%=      5-min Rain = 0
KOD1 082127Z 19005KT 08/M01 A3033 RMK A01 T00811012  RH  052%=      5-min Rain = 0
KOD1 082128Z 18006KT 08/M01 A3033 RMK A01 T00811009  RH  053%=      5-min Rain = 0
KOD1 082129Z 18005KT 08/M01 A3033 RMK A01 T00811010  RH  053%=      5-min Rain = 0
KOD1 082130Z 17005KT 08/M01 A3033 RMK A01 T00821005  RH  054%=      5-min Rain = 0
KOD1 082131Z 16004KT 08/M01 A3033 RMK A01 T00821011  RH  052%=      5-min Rain = 0
KOD1 082132Z 16004KT 08/M01 A3033 RMK A01 T00821009  RH  053%=      5-min Rain = 0
KOD1 082133Z 18005KT 08/M01 A3033 RMK A01 T00831008  RH  053%=      5-min Rain = 0
KOD1 082134Z 19004KT 08/M01 A3033 RMK A01 T00831011  RH  052%=      5-min Rain = 0
KOD1 082135Z 20004KT 08/M01 A3033 RMK A01 T00821014  RH  051%=      5-min Rain = 0
KOD1 082136Z 20004KT 08/M01 A3033 RMK A01 T00811012  RH  052%=      5-min Rain = 0
KOD1 082137Z 18005KT 08/M01 A3033 RMK A01 T00821009  RH  053%=      5-min Rain = 0
KOD1 082138Z 17006KT 08/M01 A3033 RMK A01 T00831007  RH  053%=      5-min Rain = 0
KOD1 082139Z 17004KT 08/M01 A3033 RMK A01 T00821014  RH  051%=      5-min Rain = 0
KOD1 082140Z 16004KT 08/M01 A3033 RMK A01 T00821011  RH  052%=      5-min Rain = 0
KOD1 082141Z 16006KT 08/M01 A3033 RMK A01 T00821011  RH  052%=      5-min Rain = 0
KOD1 082142Z 17005KT 08/M01 A3033 RMK A01 T00811013  RH  051%=      5-min Rain = 0
KOD1 082143Z 17004KT 08/M01 A3033 RMK A01 T00821012  RH  052%=      5-min Rain = 0
KOD1 082144Z 17004KT 08/M01 A3032 RMK A01 T00821010  RH  052%=      5-min Rain = 0
KOD1 082145Z 18004KT 08/M01 A3032 RMK A01 T00821011  RH  052%=      5-min Rain = 0
KOD1 082146Z 17005KT 08/M01 A3032 RMK A01 T00821009  RH  053%=      5-min Rain = 0
KOD1 082147Z 19004KT 08/M01 A3032 RMK A01 T00821006  RH  054%=      5-min Rain = 0
KOD1 082148Z 18005KT 08/M00 A3032 RMK A01 T00831004  RH  054%=      5-min Rain = 0
KOD1 082149Z 18006KT 08/M01 A3032 RMK A01 T00821009  RH  053%=      5-min Rain = 0
KOD1 082150Z 19007KT 08/M01 A3032 RMK A01 T00831005  RH  054%=      5-min Rain = 0
KOD1 082151Z 19005KT 08/M01 A3032 RMK A01 T00821008  RH  053%=      5-min Rain = 0
KOD1 082152Z 20005KT 08/M01 A3032 RMK A01 T00821009  RH  053%=      5-min Rain = 0
KOD1 082153Z 20004KT 08/M01 A3032 RMK A01 T00811007  RH  054%=      5-min Rain = 0
KOD1 082154Z 20005KT 08/M01 A3032 RMK A01 T00821007  RH  054%=      5-min Rain = 0
KOD1 082155Z 19005KT 08/M00 A3032 RMK A01 T00821003  RH  055%=      5-min Rain = 0
KOD1 082156Z 17005KT 08/M00 A3032 RMK A01 T00831002  RH  055%=      5-min Rain = 0
KOD1 082157Z 17006KT 08/M00 A3032 RMK A01 T00831004  RH  055%=      5-min Rain = 0
KOD1 082158Z 17005KT 08/M00 A3032 RMK A01 T00831002  RH  055%=      5-min Rain = 0
KOD1 082159Z 17005KT 08/M01 A3032 RMK A01 T00821008  RH  053%=      5-min Rain = 0
KOD1 082200Z 17005KT 08/M01 A3032 RMK A01 T00821007  RH  053%=      5-min Rain = 0
KOD1 082201Z 17006KT 08/M01 A3032 RMK A01 T00821005  RH  054%=      5-min Rain = 0
KOD1 082202Z 17006KT 08/M01 A3032 RMK A01 T00811006  RH  054%=      5-min Rain = 0
KOD1 082203Z 17006KT 08/M01 A3032 RMK A01 T00811007  RH  054%=      5-min Rain = 0
KOD1 082204Z 19006KT 08/M01 A3032 RMK A01 T00811007  RH  054%=      5-min Rain = 0
KOD1 082205Z 16007KT 08/M01 A3031 RMK A01 T00811005  RH  055%=      5-min Rain = 0
KOD1 082206Z 17006KT 08/M01 A3031 RMK A01 T00811007  RH  054%=      5-min Rain = 0
KOD1 082207Z 17005KT 08/M01 A3031 RMK A01 T00811007  RH  054%=      5-min Rain = 0
KOD1 082208Z 19006KT 08/M01 A3031 RMK A01 T00811006  RH  054%=      5-min Rain = 0
KOD1 082209Z 20005KT 08/M01 A3031 RMK A01 T00811005  RH  055%=      5-min Rain = 0
KOD1 082210Z 20005KT 08/M01 A3031 RMK A01 T00811008  RH  053%=      5-min Rain = 0
KOD1 082211Z 19005KT 08/M01 A3031 RMK A01 T00801008  RH  054%=      5-min Rain = 0
KOD1 082212Z 19005KT 08/M01 A3031 RMK A01 T00811006  RH  054%=      5-min Rain = 0
KOD1 082213Z 18007KT 08/00 A3031 RMK A01 T00810000  RH  057%=      5-min Rain = 0
KOD1 082214Z 18006KT 08/M00 A3031 RMK A01 T00811004  RH  055%=      5-min Rain = 0
KOD1 082215Z 18005KT 08/M01 A3031 RMK A01 T00811006  RH  054%=      5-min Rain = 0
KOD1 082216Z 17005KT 08/M00 A3031 RMK A01 T00811004  RH  055%=      5-min Rain = 0
KOD1 082217Z 17005KT 08/M00 A3031 RMK A01 T00811003  RH  055%=      5-min Rain = 0
KOD1 082218Z 17005KT 08/M00 A3031 RMK A01 T00821004  RH  055%=      5-min Rain = 0
KOD1 082219Z 17005KT 08/M00 A3031 RMK A01 T00811003  RH  055%=      5-min Rain = 0
KOD1 082220Z 18007KT 08/M00 A3031 RMK A01 T00811002  RH  056%=      5-min Rain = 0
KOD1 082221Z 17005KT 08/M00 A3031 RMK A01 T00811003  RH  055%=      5-min Rain = 0
KOD1 082222Z 18005KT 08/M01 A3031 RMK A01 T00811006  RH  054%=      5-min Rain = 0
KOD1 082223Z 18004KT 08/M00 A3031 RMK A01 T00811004  RH  055%=      5-min Rain = 0
KOD1 082224Z 17004KT 08/M01 A3031 RMK A01 T00811007  RH  054%=      5-min Rain = 0
KOD1 082225Z 17006KT 08/M00 A3031 RMK A01 T00821004  RH  055%=      5-min Rain = 0
KOD1 082226Z 20005KT 08/M00 A3031 RMK A01 T00821001  RH  056%=      5-min Rain = 0
KOD1 082227Z 19006KT 08/M00 A3031 RMK A01 T00821001  RH  056%=      5-min Rain = 0
KOD1 082228Z 19005KT 08/M00 A3031 RMK A01 T00821003  RH  055%=      5-min Rain = 0
KOD1 082229Z 19005KT 08/00 A3031 RMK A01 T00820001  RH  057%=      5-min Rain = 0
KOD1 082230Z 18005KT 08/M00 A3031 RMK A01 T00821003  RH  055%=      5-min Rain = 0
KOD1 082231Z 17005KT 08/00 A3031 RMK A01 T00830003  RH  057%=      5-min Rain = 0
KOD1 082232Z 17006KT 08/00 A3031 RMK A01 T00830003  RH  057%=      5-min Rain = 0
KOD1 082233Z 16006KT 08/M00 A3031 RMK A01 T00821002  RH  055%=      5-min Rain = 0
KOD1 082234Z 16007KT 08/M00 A3031 RMK A01 T00821003  RH  055%=      5-min Rain = 0
KOD1 082235Z 15007KT 08/M00 A3031 RMK A01 T00811002  RH  056%=      5-min Rain = 0
KOD1 082236Z 16007KT 08/M00 A3031 RMK A01 T00811002  RH  056%=      5-min Rain = 0
KOD1 082237Z 16006KT 08/00 A3031 RMK A01 T00810002  RH  057%=      5-min Rain = 0
KOD1 082238Z 16006KT 08/00 A3031 RMK A01 T00810002  RH  058%=      5-min Rain = 0
KOD1 082239Z 17006KT 08/00 A3031 RMK A01 T00810002  RH  057%=      5-min Rain = 0
KOD1 082240Z 17006KT 08/00 A3031 RMK A01 T00810004  RH  058%=      5-min Rain = 0
KOD1 082241Z 16005KT 08/M00 A3031 RMK A01 T00811003  RH  055%=      5-min Rain = 0
KOD1 082242Z 16004KT 08/M00 A3031 RMK A01 T00811001  RH  056%=      5-min Rain = 0
KOD1 082243Z 15005KT 08/M00 A3031 RMK A01 T00811002  RH  056%=      5-min Rain = 0
KOD1 082244Z 18006KT 08/M00 A3031 RMK A01 T00811001  RH  056%=      5-min Rain = 0
KOD1 082245Z 19006KT 08/M01 A3031 RMK A01 T00811005  RH  055%=      5-min Rain = 0
KOD1 082246Z 19004KT 08/M01 A3031 RMK A01 T00801005  RH  055%=      5-min Rain = 0
KOD1 082247Z 18004KT 08/M01 A3031 RMK A01 T00801005  RH  055%=      5-min Rain = 0
KOD1 082248Z 16005KT 08/M00 A3031 RMK A01 T00801002  RH  056%=      5-min Rain = 0
KOD1 082249Z 15005KT 08/00 A3031 RMK A01 T00810001  RH  057%=      5-min Rain = 0
KOD1 082250Z 17005KT 08/00 A3031 RMK A01 T008100-0  RH  057%=      5-min Rain = 0
KOD1 082251Z 16005KT 08/00 A3031 RMK A01 T00810002  RH  057%=      5-min Rain = 0
KOD1 082252Z 16005KT 08/M00 A3031 RMK A01 T00811002  RH  056%=      5-min Rain = 0
KOD1 082253Z 16005KT 08/M00 A3031 RMK A01 T00821003  RH  055%=      5-min Rain = 0
KOD1 082254Z 18004KT 08/00 A3031 RMK A01 T00830001  RH  056%=      5-min Rain = 0
KOD1 082255Z 18004KT 09/00 A3031 RMK A01 T00850004  RH  057%=      5-min Rain = 0
KOD1 082256Z 17005KT 09/M00 A3031 RMK A01 T00851003  RH  054%=      5-min Rain = 0
KOD1 082257Z 16006KT 09/M00 A3031 RMK A01 T00851001  RH  055%=      5-min Rain = 0
KOD1 082258Z 16007KT 09/M00 A3031 RMK A01 T00851002  RH  055%=      5-min Rain = 0
KOD1 082259Z 16006KT 09/M00 A3031 RMK A01 T00851002  RH  054%=      5-min Rain = 0
KOD1 082300Z 17006KT 09/M00 A3031 RMK A01 T00851001  RH  055%=      5-min Rain = 0
KOD1 082301Z 17006KT 09/00 A3031 RMK A01 T00850001  RH  055%=      5-min Rain = 0
KOD1 082302Z 17005KT 09/M00 A3031 RMK A01 T00851001  RH  055%=      5-min Rain = 0
KOD1 082303Z 17005KT 09/M00 A3031 RMK A01 T00851002  RH  054%=      5-min Rain = 0
KOD1 082304Z 18006KT 09/M00 A3031 RMK A01 T00851002  RH  055%=      5-min Rain = 0
KOD1 082305Z 17006KT 09/00 A3031 RMK A01 T00850003  RH  056%=      5-min Rain = 0
KOD1 082306Z 16006KT 09/01 A3031 RMK A01 T00850006  RH  058%=      5-min Rain = 0
KOD1 082307Z 16005KT 08/M00 A3031 RMK A01 T00841002  RH  055%=      5-min Rain = 0
KOD1 082308Z 16005KT 08/M00 A3031 RMK A01 T00831001  RH  055%=      5-min Rain = 0
KOD1 082309Z 16005KT 08/00 A3031 RMK A01 T008300-0  RH  056%=      5-min Rain = 0
KOD1 082310Z 17006KT 08/00 A3031 RMK A01 T00830001  RH  057%=      5-min Rain = 0
KOD1 082311Z 17007KT 08/M00 A3031 RMK A01 T00821001  RH  056%=      5-min Rain = 0
KOD1 082312Z 16007KT 08/00 A3031 RMK A01 T00810001  RH  057%=      5-min Rain = 0
KOD1 082313Z 16006KT 08/M00 A3031 RMK A01 T00811002  RH  056%=      5-min Rain = 0
KOD1 082314Z 17006KT 08/00 A3031 RMK A01 T00810004  RH  058%=      5-min Rain = 0
KOD1 082315Z 16006KT 08/00 A3031 RMK A01 T00800003  RH  058%=      5-min Rain = 0
KOD1 082316Z 17006KT 08/00 A3031 RMK A01 T00800002  RH  058%=      5-min Rain = 0
KOD1 082317Z 17006KT 08/00 A3031 RMK A01 T00790001  RH  058%=      5-min Rain = 0
KOD1 082318Z 17006KT 08/00 A3031 RMK A01 T00790003  RH  058%=      5-min Rain = 0
KOD1 082319Z 17006KT 08/00 A3031 RMK A01 T00790001  RH  058%=      5-min Rain = 0
KOD1 082320Z 17006KT 08/00 A3031 RMK A01 T00790002  RH  058%=      5-min Rain = 0
KOD1 082321Z 17006KT 08/00 A3031 RMK A01 T00780002  RH  059%=      5-min Rain = 0
KOD1 082322Z 17006KT 08/00 A3031 RMK A01 T00780004  RH  060%=      5-min Rain = 0
KOD1 082323Z 18005KT 08/01 A3031 RMK A01 T00770005  RH  060%=      5-min Rain = 0
KOD1 082324Z 17006KT 08/01 A3031 RMK A01 T00770006  RH  061%=      5-min Rain = 0
KOD1 082325Z 17006KT 08/01 A3031 RMK A01 T00760005  RH  061%=      5-min Rain = 0
KOD1 082326Z 17006KT 08/01 A3031 RMK A01 T00760005  RH  061%=      5-min Rain = 0
KOD1 082327Z 17005KT 08/01 A3031 RMK A01 T00760009  RH  063%=      5-min Rain = 0
KOD1 082328Z 17006KT 08/01 A3031 RMK A01 T00750012  RH  064%=      5-min Rain = 0
KOD1 082329Z 17005KT 07/01 A3031 RMK A01 T00740010  RH  063%=      5-min Rain = 0
KOD1 082330Z 17005KT 07/01 A3031 RMK A01 T00740012  RH  065%=      5-min Rain = 0
KOD1 082331Z 17005KT 07/01 A3031 RMK A01 T00730012  RH  065%=      5-min Rain = 0
KOD1 082332Z 17005KT 07/01 A3031 RMK A01 T00730010  RH  064%=      5-min Rain = 0
KOD1 082333Z 17005KT 07/01 A3031 RMK A01 T00720011  RH  065%=      5-min Rain = 0
KOD1 082334Z 17005KT 07/01 A3031 RMK A01 T00720010  RH  065%=      5-min Rain = 0
KOD1 082335Z 17005KT 07/01 A3031 RMK A01 T00710011  RH  065%=      5-min Rain = 0
KOD1 082336Z 17005KT 07/01 A3031 RMK A01 T00710012  RH  066%=      5-min Rain = 0
KOD1 082337Z 17006KT 07/01 A3031 RMK A01 T00700012  RH  066%=      5-min Rain = 0
KOD1 082338Z 17005KT 07/01 A3031 RMK A01 T00700011  RH  066%=      5-min Rain = 0
KOD1 082339Z 18005KT 07/01 A3031 RMK A01 T00690013  RH  068%=      5-min Rain = 0
KOD1 082340Z 17005KT 07/01 A3031 RMK A01 T00690014  RH  068%=      5-min Rain = 0
KOD1 082341Z 17005KT 07/01 A3031 RMK A01 T00680013  RH  068%=      5-min Rain = 0
KOD1 082342Z 17006KT 07/01 A3031 RMK A01 T00680012  RH  068%=      5-min Rain = 0
KOD1 082343Z 17005KT 07/01 A3031 RMK A01 T00680008  RH  066%=      5-min Rain = 0
KOD1 082344Z 17005KT 07/01 A3031 RMK A01 T00680011  RH  067%=      5-min Rain = 0
KOD1 082345Z 17005KT 07/01 A3031 RMK A01 T00680012  RH  067%=      5-min Rain = 0
KOD1 082346Z 17005KT 07/01 A3031 RMK A01 T00670012  RH  068%=      5-min Rain = 0
KOD1 082347Z 17005KT 07/01 A3031 RMK A01 T00670012  RH  068%=      5-min Rain = 0
KOD1 082348Z 17005KT 07/01 A3031 RMK A01 T00660012  RH  068%=      5-min Rain = 0
KOD1 082349Z 17005KT 07/02 A3031 RMK A01 T00660015  RH  070%=      5-min Rain = 0
KOD1 082350Z 16005KT 07/02 A3031 RMK A01 T00650015  RH  070%=      5-min Rain = 0
KOD1 082351Z 16006KT 07/02 A3031 RMK A01 T00650017  RH  071%=      5-min Rain = 0
KOD1 082352Z 16005KT 06/02 A3031 RMK A01 T00640018  RH  072%=      5-min Rain = 0
KOD1 082353Z 16006KT 06/02 A3031 RMK A01 T00630018  RH  073%=      5-min Rain = 0
KOD1 082354Z 16006KT 06/02 A303 RMK A01 T00620017  RH  073%=      5-min Rain = 0
KOD1 082355Z 16006KT 06/02 A303 RMK A01 T00610015  RH  072%=      5-min Rain = 0
KOD1 082356Z 16006KT 06/01 A303 RMK A01 T00610011  RH  070%=      5-min Rain = 0
KOD1 082357Z 16006KT 06/01 A303 RMK A01 T00610010  RH  070%=      5-min Rain = 0
KOD1 082358Z 16006KT 06/01 A303 RMK A01 T00600010  RH  070%=      5-min Rain = 0
KOD1 082359Z 15005KT 06/01 A303 RMK A01 T00600009  RH  070%=      5-min Rain = 0
KOD1 090000Z 15005KT 06/01 A303 RMK A01 T00590008  RH  070%=      5-min Rain = 0
KOD1 090001Z 15005KT 06/01 A303 RMK A01 T00580008  RH  070%=      5-min Rain = 0
KOD1 090002Z 15005KT 06/01 A303 RMK A01 T00570009  RH  071%=      5-min Rain = 0
KOD1 090003Z 15006KT 06/01 A303 RMK A01 T00570009  RH  072%=      5-min Rain = 0
KOD1 090004Z 15006KT 06/01 A303 RMK A01 T00560009  RH  072%=      5-min Rain = 0
KOD1 090005Z 16005KT 06/01 A303 RMK A01 T00560009  RH  072%=      5-min Rain = 0
KOD1 090006Z 16005KT 06/01 A303 RMK A01 T00550009  RH  072%=      5-min Rain = 0
KOD1 090007Z 16005KT 06/01 A303 RMK A01 T00550010  RH  073%=      5-min Rain = 0
KOD1 090008Z 16005KT 06/01 A303 RMK A01 T00550011  RH  073%=      5-min Rain = 0
KOD1 090009Z 15005KT 06/01 A303 RMK A01 T00550011  RH  073%=      5-min Rain = 0
KOD1 090010Z 16005KT 06/01 A303 RMK A01 T00550010  RH  073%=      5-min Rain = 0
KOD1 090011Z 16005KT 05/01 A303 RMK A01 T00540010  RH  073%=      5-min Rain = 0
KOD1 090012Z 16005KT 05/01 A303 RMK A01 T00540011  RH  073%=      5-min Rain = 0
KOD1 090013Z 16004KT 05/01 A303 RMK A01 T00540012  RH  074%=      5-min Rain = 0
KOD1 090014Z 16004KT 05/01 A303 RMK A01 T00540012  RH  074%=      5-min Rain = 0
KOD1 090015Z 15005KT 05/01 A303 RMK A01 T00530011  RH  074%=      5-min Rain = 0
KOD1 090016Z 15005KT 05/01 A303 RMK A01 T00530011  RH  074%=      5-min Rain = 0
KOD1 090017Z 15005KT 05/01 A303 RMK A01 T00520010  RH  074%=      5-min Rain = 0
KOD1 090018Z 15005KT 05/01 A303 RMK A01 T00520010  RH  074%=      5-min Rain = 0
KOD1 090019Z 15005KT 05/01 A303 RMK A01 T00510010  RH  075%=      5-min Rain = 0
KOD1 090020Z 15005KT 05/01 A303 RMK A01 T00510010  RH  075%=      5-min Rain = 0
KOD1 090021Z 15005KT 05/01 A303 RMK A01 T00510010  RH  075%=      5-min Rain = 0
KOD1 090022Z 15005KT 05/01 A303 RMK A01 T00510010  RH  075%=      5-min Rain = 0
KOD1 090023Z 15005KT 05/01 A303 RMK A01 T00500010  RH  075%=      5-min Rain = 0
KOD1 090024Z 15005KT 05/01 A303 RMK A01 T00500010  RH  075%=      5-min Rain = 0
KOD1 090025Z 15005KT 05/01 A303 RMK A01 T00500010  RH  075%=      5-min Rain = 0
KOD1 090026Z 15005KT 05/01 A303 RMK A01 T00500010  RH  075%=      5-min Rain = 0
KOD1 090027Z 16005KT 05/01 A303 RMK A01 T00500010  RH  075%=      5-min Rain = 0
KOD1 090028Z 15005KT 05/01 A303 RMK A01 T00500011  RH  076%=      5-min Rain = 0
KOD1 090029Z 15005KT 05/01 A303 RMK A01 T00500011  RH  076%=      5-min Rain = 0
KOD1 090030Z 15005KT 05/01 A303 RMK A01 T00490011  RH  076%=      5-min Rain = 0
KOD1 090031Z 16005KT 05/01 A303 RMK A01 T00490011  RH  076%=      5-min Rain = 0
KOD1 090032Z 16005KT 05/01 A303 RMK A01 T00490011  RH  077%=      5-min Rain = 0
KOD1 090033Z 16004KT 05/01 A303 RMK A01 T00480011  RH  077%=      5-min Rain = 0
KOD1 090034Z 16004KT 05/01 A303 RMK A01 T00480012  RH  077%=      5-min Rain = 0
KOD1 090035Z 17004KT 05/01 A303 RMK A01 T00480012  RH  078%=      5-min Rain = 0
KOD1 090036Z 18004KT 05/01 A3031 RMK A01 T00480014  RH  079%=      5-min Rain = 0
KOD1 090037Z 18004KT 05/02 A3031 RMK A01 T00480016  RH  080%=      5-min Rain = 0
KOD1 090038Z 19004KT 05/02 A3031 RMK A01 T00490018  RH  081%=      5-min Rain = 0
KOD1 090039Z 19004KT 05/02 A3031 RMK A01 T00490019  RH  081%=      5-min Rain = 0
KOD1 090040Z 19005KT 05/02 A3031 RMK A01 T00490019  RH  081%=      5-min Rain = 0
KOD1 090041Z 19005KT 05/02 A3031 RMK A01 T00490019  RH  081%=      5-min Rain = 0
KOD1 090042Z 18005KT 05/02 A3031 RMK A01 T00500019  RH  081%=      5-min Rain = 0
KOD1 090043Z 18005KT 05/02 A303 RMK A01 T00500019  RH  081%=      5-min Rain = 0
KOD1 090044Z 18006KT 05/02 A303 RMK A01 T00500019  RH  080%=      5-min Rain = 0
KOD1 090045Z 18006KT 05/02 A303 RMK A01 T00500018  RH  080%=      5-min Rain = 0
KOD1 090046Z 18006KT 05/02 A303 RMK A01 T00510018  RH  080%=      5-min Rain = 0
KOD1 090047Z 18006KT 05/02 A303 RMK A01 T00500018  RH  079%=      5-min Rain = 0
KOD1 090048Z 18006KT 05/02 A303 RMK A01 T00510017  RH  079%=      5-min Rain = 0
KOD1 090049Z 17006KT 05/02 A3031 RMK A01 T00500017  RH  079%=      5-min Rain = 0
KOD1 090050Z 17005KT 05/02 A3031 RMK A01 T00510017  RH  079%=      5-min Rain = 0
KOD1 090051Z 17005KT 05/02 A3031 RMK A01 T00500017  RH  079%=      5-min Rain = 0
KOD1 090052Z 17005KT 05/02 A3031 RMK A01 T00510017  RH  079%=      5-min Rain = 0
KOD1 090053Z 17005KT 05/02 A3031 RMK A01 T00500016  RH  079%=      5-min Rain = 0
KOD1 090054Z 17005KT 05/02 A3031 RMK A01 T00490016  RH  079%=      5-min Rain = 0
KOD1 090055Z 17005KT 05/02 A3031 RMK A01 T00490017  RH  080%=      5-min Rain = 0
KOD1 090056Z 16005KT 05/02 A3031 RMK A01 T00480017  RH  080%=      5-min Rain = 0
KOD1 090057Z 16004KT 05/02 A3031 RMK A01 T00470017  RH  081%=      5-min Rain = 0
KOD1 090058Z 16004KT 05/02 A3031 RMK A01 T00460015  RH  080%=      5-min Rain = 0
KOD1 090059Z 17004KT 05/01 A3031 RMK A01 T00460014  RH  080%=      5-min Rain = 0
KOD1 090100Z 17004KT 05/01 A3031 RMK A01 T00450014  RH  080%=      5-min Rain = 0
KOD1 090101Z 17004KT 05/01 A3031 RMK A01 T00450013  RH  080%=      5-min Rain = 0
KOD1 090102Z 17004KT 04/01 A303 RMK A01 T00440013  RH  080%=      5-min Rain = 0
KOD1 090103Z 17004KT 04/01 A303 RMK A01 T00440014  RH  081%=      5-min Rain = 0
KOD1 090104Z 17004KT 04/01 A303 RMK A01 T00440014  RH  081%=      5-min Rain = 0
KOD1 090105Z 17004KT 04/02 A303 RMK A01 T00430015  RH  082%=      5-min Rain = 0
KOD1 090106Z 17004KT 04/02 A303 RMK A01 T00430016  RH  082%=      5-min Rain = 0
KOD1 090107Z 17005KT 04/02 A303 RMK A01 T00430017  RH  083%=      5-min Rain = 0
KOD1 090108Z 17005KT 04/02 A303 RMK A01 T00430017  RH  083%=      5-min Rain = 0
KOD1 090109Z 16005KT 04/02 A303 RMK A01 T00430017  RH  083%=      5-min Rain = 0
KOD1 090110Z 17005KT 04/02 A303 RMK A01 T00430017  RH  083%=      5-min Rain = 0
KOD1 090111Z 17005KT 04/02 A303 RMK A01 T00440017  RH  083%=      5-min Rain = 0
KOD1 090112Z 16005KT 04/02 A303 RMK A01 T00440017  RH  083%=      5-min Rain = 0
KOD1 090113Z 17006KT 04/02 A303 RMK A01 T00440017  RH  083%=      5-min Rain = 0
KOD1 090114Z 17006KT 04/02 A303 RMK A01 T00440016  RH  082%=      5-min Rain = 0
KOD1 090115Z 17006KT 04/02 A303 RMK A01 T00430016  RH  083%=      5-min Rain = 0
KOD1 090116Z 16006KT 04/02 A303 RMK A01 T00440017  RH  083%=      5-min Rain = 0
KOD1 090117Z 16006KT 05/02 A303 RMK A01 T00450017  RH  082%=      5-min Rain = 0
KOD1 090118Z 16006KT 05/02 A303 RMK A01 T00450017  RH  082%=      5-min Rain = 0
KOD1 090119Z 16006KT 05/02 A303 RMK A01 T00450017  RH  082%=      5-min Rain = 0
KOD1 090120Z 16005KT 05/02 A303 RMK A01 T00450018  RH  082%=      5-min Rain = 0
KOD1 090121Z 16006KT 05/02 A303 RMK A01 T00450017  RH  082%=      5-min Rain = 0
KOD1 090122Z 16005KT 05/02 A303 RMK A01 T00450017  RH  082%=      5-min Rain = 0
KOD1 090123Z 16006KT 05/02 A303 RMK A01 T00450018  RH  082%=      5-min Rain = 0
KOD1 090124Z 16005KT 05/02 A303 RMK A01 T00450017  RH  082%=      5-min Rain = 0
KOD1 090125Z 15005KT 05/02 A303 RMK A01 T00450017  RH  082%=      5-min Rain = 0
KOD1 090126Z 16005KT 05/02 A303 RMK A01 T00450016  RH  081%=      5-min Rain = 0
KOD1 090127Z 16005KT 05/02 A303 RMK A01 T00450016  RH  081%=      5-min Rain = 0
KOD1 090128Z 16005KT 05/02 A303 RMK A01 T00450015  RH  081%=      5-min Rain = 0
KOD1 090129Z 16005KT 05/02 A303 RMK A01 T00450015  RH  081%=      5-min Rain = 0
KOD1 090130Z 16005KT 05/02 A303 RMK A01 T00450015  RH  081%=      5-min Rain = 0
KOD1 090131Z 16005KT 05/02 A3031 RMK A01 T00450015  RH  081%=      5-min Rain = 0
KOD1 090132Z 16005KT 05/02 A3031 RMK A01 T00450016  RH  082%=      5-min Rain = 0
KOD1 090133Z 16005KT 05/02 A3031 RMK A01 T00450017  RH  082%=      5-min Rain = 0
KOD1 090134Z 16005KT 04/02 A303 RMK A01 T00440017  RH  083%=      5-min Rain = 0
KOD1 090135Z 15005KT 04/02 A303 RMK A01 T00440017  RH  083%=      5-min Rain = 0
KOD1 090136Z 16006KT 04/02 A303 RMK A01 T00440017  RH  083%=      5-min Rain = 0
KOD1 090137Z 16006KT 04/02 A303 RMK A01 T00440015  RH  082%=      5-min Rain = 0
KOD1 090138Z 16007KT 04/02 A303 RMK A01 T00440015  RH  081%=      5-min Rain = 0
KOD1 090139Z 16007KT 05/02 A303 RMK A01 T00450015  RH  081%=      5-min Rain = 0
KOD1 090140Z 16007KT 05/02 A303 RMK A01 T00450015  RH  081%=      5-min Rain = 0
KOD1 090141Z 17007KT 05/02 A303 RMK A01 T00450015  RH  081%=      5-min Rain = 0
KOD1 090142Z 16007KT 05/02 A303 RMK A01 T00450015  RH  081%=      5-min Rain = 0
KOD1 090143Z 16007KT 04/02 A303 RMK A01 T00440015  RH  082%=      5-min Rain = 0
KOD1 090144Z 16007KT 04/02 A303 RMK A01 T00440015  RH  082%=      5-min Rain = 0
KOD1 090145Z 16007KT 04/02 A303 RMK A01 T00440016  RH  082%=      5-min Rain = 0
KOD1 090146Z 16007KT 04/02 A303 RMK A01 T00440016  RH  082%=      5-min Rain = 0
KOD1 090147Z 16007KT 04/02 A303 RMK A01 T00440016  RH  082%=      5-min Rain = 0
KOD1 090148Z 16007KT 04/02 A303 RMK A01 T00440016  RH  082%=      5-min Rain = 0
KOD1 090149Z 16007KT 04/02 A303 RMK A01 T00440016  RH  082%=      5-min Rain = 0
KOD1 090150Z 16007KT 04/02 A303 RMK A01 T00430016  RH  082%=      5-min Rain = 0
KOD1 090151Z 16006KT 04/02 A303 RMK A01 T00430016  RH  082%=      5-min Rain = 0
KOD1 090152Z 16006KT 04/02 A303 RMK A01 T00430015  RH  082%=      5-min Rain = 0
KOD1 090153Z 16007KT 04/02 A303 RMK A01 T00430016  RH  082%=      5-min Rain = 0
KOD1 090154Z 16006KT 04/02 A303 RMK A01 T00440016  RH  082%=      5-min Rain = 0
KOD1 090155Z 16006KT 04/02 A303 RMK A01 T00440016  RH  082%=      5-min Rain = 0
KOD1 090156Z 16007KT 04/02 A303 RMK A01 T00440016  RH  082%=      5-min Rain = 0
KOD1 090157Z 16007KT 04/02 A303 RMK A01 T00440016  RH  082%=      5-min Rain = 0
KOD1 090158Z 16007KT 04/02 A303 RMK A01 T00440016  RH  082%=      5-min Rain = 0
KOD1 090159Z 16007KT 04/02 A303 RMK A01 T00440015  RH  082%=      5-min Rain = 0
KOD1 090200Z 16006KT 04/02 A303 RMK A01 T00440015  RH  082%=      5-min Rain = 0
KOD1 090201Z 17007KT 04/02 A3031 RMK A01 T00440016  RH  082%=      5-min Rain = 0
KOD1 090202Z 17007KT 04/02 A3031 RMK A01 T00440015  RH  081%=      5-min Rain = 0
KOD1 090203Z 16007KT 05/02 A3031 RMK A01 T00450015  RH  081%=      5-min Rain = 0
KOD1 090204Z 17007KT 05/01 A3031 RMK A01 T00460014  RH  080%=      5-min Rain = 0
KOD1 090205Z 16007KT 05/01 A3031 RMK A01 T00460014  RH  080%=      5-min Rain = 0
KOD1 090206Z 16007KT 05/01 A3031 RMK A01 T00470014  RH  079%=      5-min Rain = 0
KOD1 090207Z 16007KT 05/01 A3031 RMK A01 T00470014  RH  079%=      5-min Rain = 0
KOD1 090208Z 16007KT 05/01 A3031 RMK A01 T00470014  RH  079%=      5-min Rain = 0
KOD1 090209Z 16007KT 05/01 A3031 RMK A01 T00470013  RH  079%=      5-min Rain = 0
KOD1 090210Z 16007KT 05/01 A3031 RMK A01 T00470014  RH  079%=      5-min Rain = 0
KOD1 090211Z 16007KT 05/01 A3031 RMK A01 T00470013  RH  079%=      5-min Rain = 0
KOD1 090212Z 16006KT 05/01 A3031 RMK A01 T00470013  RH  079%=      5-min Rain = 0
KOD1 090213Z 16007KT 05/01 A3031 RMK A01 T00470012  RH  078%=      5-min Rain = 0
KOD1 090214Z 16006KT 05/01 A3031 RMK A01 T00470012  RH  078%=      5-min Rain = 0
KOD1 090215Z 17007KT 05/01 A3031 RMK A01 T00480012  RH  078%=      5-min Rain = 0
KOD1 090216Z 17006KT 05/01 A3031 RMK A01 T00480012  RH  077%=      5-min Rain = 0
KOD1 090217Z 16006KT 05/01 A3031 RMK A01 T00480012  RH  078%=      5-min Rain = 0
KOD1 090218Z 17006KT 05/01 A3031 RMK A01 T00480012  RH  078%=      5-min Rain = 0
KOD1 090219Z 16006KT 05/01 A3031 RMK A01 T00480012  RH  078%=      5-min Rain = 0
KOD1 090220Z 16006KT 05/01 A3031 RMK A01 T00470012  RH  078%=      5-min Rain = 0
KOD1 090221Z 17006KT 05/01 A3031 RMK A01 T00470012  RH  078%=      5-min Rain = 0
KOD1 090222Z 17006KT 05/01 A3031 RMK A01 T00470012  RH  078%=      5-min Rain = 0
KOD1 090223Z 16006KT 05/01 A3031 RMK A01 T00470012  RH  078%=      5-min Rain = 0
KOD1 090224Z 17007KT 05/01 A3031 RMK A01 T00470012  RH  078%=      5-min Rain = 0
KOD1 090225Z 17006KT 05/01 A3031 RMK A01 T00460013  RH  079%=      5-min Rain = 0
KOD1 090226Z 16006KT 05/01 A3031 RMK A01 T00460013  RH  079%=      5-min Rain = 0
KOD1 090227Z 17006KT 05/01 A3031 RMK A01 T00460013  RH  080%=      5-min Rain = 0
KOD1 090228Z 17007KT 05/01 A3031 RMK A01 T00450013  RH  080%=      5-min Rain = 0
KOD1 090229Z 17007KT 05/01 A3031 RMK A01 T00460013  RH  079%=      5-min Rain = 0
KOD1 090230Z 17007KT 05/01 A3031 RMK A01 T00460013  RH  079%=      5-min Rain = 0
KOD1 090231Z 17007KT 05/01 A3031 RMK A01 T00460013  RH  079%=      5-min Rain = 0
KOD1 090232Z 16007KT 05/01 A3031 RMK A01 T00460013  RH  079%=      5-min Rain = 0
KOD1 090233Z 17007KT 05/01 A3031 RMK A01 T00460013  RH  079%=      5-min Rain = 0
KOD1 090234Z 17007KT 05/01 A3031 RMK A01 T00460013  RH  079%=      5-min Rain = 0
KOD1 090235Z 17006KT 05/01 A3031 RMK A01 T00460013  RH  079%=      5-min Rain = 0
KOD1 090236Z 17006KT 05/01 A3031 RMK A01 T00460013  RH  079%=      5-min Rain = 0
KOD1 090237Z 17006KT 05/01 A3031 RMK A01 T00460013  RH  079%=      5-min Rain = 0
KOD1 090238Z 16006KT 05/01 A3031 RMK A01 T00460013  RH  079%=      5-min Rain = 0
KOD1 090239Z 16006KT 05/01 A3031 RMK A01 T00460013  RH  079%=      5-min Rain = 0
KOD1 090240Z 16006KT 05/01 A3031 RMK A01 T00460014  RH  080%=      5-min Rain = 0
KOD1 090241Z 16006KT 05/01 A3031 RMK A01 T00460014  RH  080%=      5-min Rain = 0
KOD1 090242Z 16005KT 05/01 A3031 RMK A01 T00450014  RH  080%=      5-min Rain = 0
KOD1 090243Z 16006KT 05/02 A3031 RMK A01 T00450015  RH  081%=      5-min Rain = 0
KOD1 090244Z 16006KT 05/02 A3031 RMK A01 T00450015  RH  081%=      5-min Rain = 0
KOD1 090245Z 16006KT 05/02 A3031 RMK A01 T00450015  RH  081%=      5-min Rain = 0
KOD1 090246Z 16006KT 05/02 A3031 RMK A01 T00450015  RH  081%=      5-min Rain = 0
KOD1 090247Z 16006KT 04/02 A3031 RMK A01 T00440015  RH  081%=      5-min Rain = 0
KOD1 090248Z 16006KT 04/02 A3031 RMK A01 T00440016  RH  082%=      5-min Rain = 0
KOD1 090249Z 16006KT 04/02 A3031 RMK A01 T00440016  RH  082%=      5-min Rain = 0
KOD1 090250Z 16006KT 04/02 A3031 RMK A01 T00440016  RH  082%=      5-min Rain = 0
KOD1 090251Z 16006KT 04/02 A3031 RMK A01 T00440016  RH  082%=      5-min Rain = 0
KOD1 090252Z 16006KT 05/02 A3031 RMK A01 T00450016  RH  082%=      5-min Rain = 0
KOD1 090253Z 16005KT 04/02 A3031 RMK A01 T00440016  RH  082%=      5-min Rain = 0
KOD1 090254Z 16005KT 05/02 A3031 RMK A01 T00450016  RH  082%=      5-min Rain = 0
KOD1 090255Z 16005KT 04/02 A3031 RMK A01 T00440016  RH  082%=      5-min Rain = 0
KOD1 090256Z 17005KT 04/02 A3031 RMK A01 T00440016  RH  082%=      5-min Rain = 0
KOD1 090257Z 17005KT 04/02 A3031 RMK A01 T00440016  RH  082%=      5-min Rain = 0
KOD1 090258Z 17005KT 04/02 A3031 RMK A01 T00440016  RH  082%=      5-min Rain = 0
KOD1 090259Z 17005KT 04/02 A3031 RMK A01 T00440016  RH  082%=      5-min Rain = 0
KOD1 090300Z 17005KT 04/02 A3031 RMK A01 T00440016  RH  082%=      5-min Rain = 0
KOD1 090301Z 17005KT 04/02 A3031 RMK A01 T00440016  RH  082%=      5-min Rain = 0
KOD1 090302Z 17005KT 04/02 A3031 RMK A01 T00440016  RH  082%=      5-min Rain = 0
KOD1 090303Z 17005KT 04/02 A3031 RMK A01 T00440016  RH  082%=      5-min Rain = 0
KOD1 090304Z 17005KT 04/02 A3031 RMK A01 T00440016  RH  082%=      5-min Rain = 0
KOD1 090305Z 17005KT 04/02 A3031 RMK A01 T00440016  RH  082%=      5-min Rain = 0
KOD1 090306Z 17006KT 04/02 A3031 RMK A01 T00440016  RH  082%=      5-min Rain = 0
KOD1 090307Z 17006KT 04/02 A3031 RMK A01 T00440016  RH  082%=      5-min Rain = 0
KOD1 090308Z 17006KT 04/02 A3031 RMK A01 T00440016  RH  082%=      5-min Rain = 0
KOD1 090309Z 17006KT 04/02 A303 RMK A01 T00440016  RH  082%=      5-min Rain = 0
KOD1 090310Z 17007KT 04/02 A303 RMK A01 T00440017  RH  082%=      5-min Rain = 0
KOD1 090311Z 17006KT 04/02 A303 RMK A01 T00440016  RH  082%=      5-min Rain = 0
KOD1 090312Z 17006KT 04/02 A303 RMK A01 T00440016  RH  082%=      5-min Rain = 0
KOD1 090313Z 17006KT 04/02 A303 RMK A01 T00440017  RH  082%=      5-min Rain = 0
KOD1 090314Z 17006KT 04/02 A303 RMK A01 T00440016  RH  082%=      5-min Rain = 0
KOD1 090315Z 17005KT 04/02 A303 RMK A01 T00430016  RH  083%=      5-min Rain = 0
KOD1 090316Z 17006KT 04/02 A303 RMK A01 T00430017  RH  083%=      5-min Rain = 0
KOD1 090317Z 17006KT 04/02 A303 RMK A01 T00430016  RH  083%=      5-min Rain = 0
KOD1 090318Z 17005KT 04/02 A303 RMK A01 T00430016  RH  083%=      5-min Rain = 0
KOD1 090319Z 17005KT 04/02 A303 RMK A01 T00430017  RH  083%=      5-min Rain = 0
KOD1 090320Z 17005KT 04/02 A303 RMK A01 T00420016  RH  083%=      5-min Rain = 0
KOD1 090321Z 17006KT 04/02 A3031 RMK A01 T00420017  RH  083%=      5-min Rain = 0
KOD1 090322Z 17006KT 04/02 A3031 RMK A01 T00420017  RH  083%=      5-min Rain = 0
KOD1 090323Z 17006KT 04/02 A3031 RMK A01 T00420016  RH  084%=      5-min Rain = 0
KOD1 090324Z 17006KT 04/02 A3031 RMK A01 T00420017  RH  084%=      5-min Rain = 0
KOD1 090325Z 17006KT 04/02 A3031 RMK A01 T00420017  RH  084%=      5-min Rain = 0
KOD1 090326Z 17006KT 04/02 A3031 RMK A01 T00430017  RH  084%=      5-min Rain = 0
KOD1 090327Z 17006KT 04/02 A3031 RMK A01 T00420017  RH  083%=      5-min Rain = 0
KOD1 090328Z 17006KT 04/02 A3031 RMK A01 T00430017  RH  083%=      5-min Rain = 0
KOD1 090329Z 17006KT 04/02 A3031 RMK A01 T00440017  RH  083%=      5-min Rain = 0
KOD1 090330Z 18006KT 04/02 A3031 RMK A01 T00440017  RH  083%=      5-min Rain = 0
KOD1 090331Z 17006KT 04/02 A3031 RMK A01 T00440017  RH  082%=      5-min Rain = 0
KOD1 090332Z 18006KT 04/02 A3031 RMK A01 T00440017  RH  082%=      5-min Rain = 0
KOD1 090333Z 18006KT 05/02 A3031 RMK A01 T00450017  RH  082%=      5-min Rain = 0
KOD1 090334Z 18007KT 05/02 A3031 RMK A01 T00450018  RH  082%=      5-min Rain = 0
KOD1 090335Z 18006KT 05/02 A3031 RMK A01 T00450018  RH  082%=      5-min Rain = 0
KOD1 090336Z 18006KT 05/02 A3031 RMK A01 T00460018  RH  082%=      5-min Rain = 0
KOD1 090337Z 18007KT 05/02 A3031 RMK A01 T00450018  RH  082%=      5-min Rain = 0
KOD1 090338Z 18007KT 05/02 A3031 RMK A01 T00450018  RH  082%=      5-min Rain = 0
KOD1 090339Z 18007KT 05/02 A3031 RMK A01 T00450018  RH  082%=      5-min Rain = 0
KOD1 090340Z 18007KT 05/02 A3031 RMK A01 T00460018  RH  082%=      5-min Rain = 0
KOD1 090341Z 18007KT 05/02 A3031 RMK A01 T00460017  RH  082%=      5-min Rain = 0
KOD1 090342Z 18007KT 05/02 A3031 RMK A01 T00460017  RH  082%=      5-min Rain = 0
KOD1 090343Z 18006KT 05/02 A3031 RMK A01 T00460018  RH  082%=      5-min Rain = 0
KOD1 090344Z 18006KT 05/02 A3031 RMK A01 T00450017  RH  082%=      5-min Rain = 0
KOD1 090345Z 18007KT 05/02 A3031 RMK A01 T00450018  RH  082%=      5-min Rain = 0
KOD1 090346Z 18006KT 04/02 A3031 RMK A01 T00440018  RH  083%=      5-min Rain = 0
KOD1 090347Z 18006KT 05/02 A3031 RMK A01 T00450018  RH  083%=      5-min Rain = 0
KOD1 090348Z 18006KT 05/02 A3031 RMK A01 T00450018  RH  082%=      5-min Rain = 0
KOD1 090349Z 18006KT 05/02 A3031 RMK A01 T00460018  RH  082%=      5-min Rain = 0
KOD1 090350Z 17006KT 05/02 A3031 RMK A01 T00450018  RH  082%=      5-min Rain = 0
KOD1 090351Z 18006KT 05/02 A3031 RMK A01 T00450018  RH  083%=      5-min Rain = 0
KOD1 090352Z 18007KT 04/02 A3031 RMK A01 T00440018  RH  083%=      5-min Rain = 0
KOD1 090353Z 18007KT 05/02 A3031 RMK A01 T00450018  RH  083%=      5-min Rain = 0
KOD1 090354Z 18006KT 05/02 A3031 RMK A01 T00460018  RH  082%=      5-min Rain = 0
KOD1 090355Z 18006KT 05/02 A3031 RMK A01 T00460018  RH  082%=      5-min Rain = 0
KOD1 090356Z 18006KT 05/02 A3031 RMK A01 T00460018  RH  082%=      5-min Rain = 0
KOD1 090357Z 18006KT 05/02 A3031 RMK A01 T00460018  RH  082%=      5-min Rain = 0
KOD1 090358Z 18005KT 05/02 A3031 RMK A01 T00460018  RH  082%=      5-min Rain = 0
KOD1 090359Z 17006KT 05/02 A3031 RMK A01 T00460018  RH  082%=      5-min Rain = 0
KOD1 090400Z 18005KT 05/02 A3031 RMK A01 T00460018  RH  082%=      5-min Rain = 0
KOD1 090401Z 18005KT 05/02 A3031 RMK A01 T00460018  RH  082%=      5-min Rain = 0
KOD1 090402Z 18005KT 05/02 A3031 RMK A01 T00460018  RH  082%=      5-min Rain = 0
KOD1 090403Z 18006KT 05/02 A3031 RMK A01 T00460018  RH  082%=      5-min Rain = 0
KOD1 090404Z 18006KT 05/02 A3031 RMK A01 T00460018  RH  082%=      5-min Rain = 0
KOD1 090405Z 18006KT 05/02 A3031 RMK A01 T00450018  RH  082%=      5-min Rain = 0
KOD1 090406Z 18006KT 05/02 A3031 RMK A01 T00460018  RH  082%=      5-min Rain = 0
KOD1 090407Z 18006KT 05/02 A3031 RMK A01 T00460018  RH  082%=      5-min Rain = 0
KOD1 090408Z 18006KT 05/02 A3031 RMK A01 T00460018  RH  082%=      5-min Rain = 0
KOD1 090409Z 18007KT 05/02 A3031 RMK A01 T00460018  RH  082%=      5-min Rain = 0
KOD1 090410Z 18007KT 05/02 A3031 RMK A01 T00460019  RH  082%=      5-min Rain = 0
KOD1 090411Z 19007KT 05/02 A3031 RMK A01 T00470019  RH  082%=      5-min Rain = 0
KOD1 090412Z 18007KT 05/02 A3031 RMK A01 T00470019  RH  082%=      5-min Rain = 0
KOD1 090413Z 18007KT 05/02 A303 RMK A01 T00470019  RH  082%=      5-min Rain = 0
KOD1 090414Z 18008KT 05/02 A303 RMK A01 T00470019  RH  082%=      5-min Rain = 0
KOD1 090415Z 18007KT 05/02 A303 RMK A01 T00470019  RH  082%=      5-min Rain = 0
KOD1 090416Z 18007KT 05/02 A303 RMK A01 T00470019  RH  082%=      5-min Rain = 0
KOD1 090417Z 18007KT 05/02 A303 RMK A01 T00470019  RH  082%=      5-min Rain = 0
KOD1 090418Z 18007KT 05/02 A303 RMK A01 T00460019  RH  082%=      5-min Rain = 0
KOD1 090419Z 18008KT 05/02 A303 RMK A01 T00460019  RH  083%=      5-min Rain = 0
KOD1 090420Z 18008KT 05/02 A303 RMK A01 T00460019  RH  083%=      5-min Rain = 0
KOD1 090421Z 18008KT 05/02 A303 RMK A01 T00460020  RH  083%=      5-min Rain = 0
KOD1 090422Z 18008KT 05/02 A303 RMK A01 T00460019  RH  083%=      5-min Rain = 0
KOD1 090423Z 18008KT 05/02 A303 RMK A01 T00460020  RH  083%=      5-min Rain = 0
KOD1 090424Z 18008KT 05/02 A303 RMK A01 T00460020  RH  083%=      5-min Rain = 0
KOD1 090425Z 18008KT 05/02 A303 RMK A01 T00470020  RH  083%=      5-min Rain = 0
KOD1 090426Z 18008KT 05/02 A303 RMK A01 T00470020  RH  083%=      5-min Rain = 0
KOD1 090427Z 18008KT 05/02 A303 RMK A01 T00470020  RH  083%=      5-min Rain = 0
KOD1 090428Z 18008KT 05/02 A303 RMK A01 T00470020  RH  083%=      5-min Rain = 0
KOD1 090429Z 18008KT 05/02 A303 RMK A01 T00470020  RH  083%=      5-min Rain = 0
KOD1 090430Z 18008KT 05/02 A303 RMK A01 T00480020  RH  083%=      5-min Rain = 0
KOD1 090431Z 18009KT 05/02 A303 RMK A01 T00480020  RH  082%=      5-min Rain = 0
KOD1 090432Z 18009KT 05/02 A303 RMK A01 T00480020  RH  082%=      5-min Rain = 0
KOD1 090433Z 18009KT 05/02 A303 RMK A01 T00480020  RH  082%=      5-min Rain = 0
KOD1 090434Z 18009KT 05/02 A303 RMK A01 T00480020  RH  083%=      5-min Rain = 0
KOD1 090435Z 18008KT 05/02 A303 RMK A01 T00480021  RH  083%=      5-min Rain = 0
KOD1 090436Z 18008KT 05/02 A303 RMK A01 T00480020  RH  083%=      5-min Rain = 0
KOD1 090437Z 18009KT 05/02 A303 RMK A01 T00480021  RH  083%=      5-min Rain = 0
KOD1 090438Z 18008KT 05/02 A303 RMK A01 T00480021  RH  083%=      5-min Rain = 0
KOD1 090439Z 18009KT 05/02 A303 RMK A01 T00480021  RH  082%=      5-min Rain = 0
KOD1 090440Z 18009KT 05/02 A303 RMK A01 T00490021  RH  082%=      5-min Rain = 0
KOD1 090441Z 18009KT 05/02 A303 RMK A01 T00490021  RH  082%=      5-min Rain = 0
KOD1 090442Z 18008KT 05/02 A303 RMK A01 T00490020  RH  082%=      5-min Rain = 0
KOD1 090443Z 18009KT 05/02 A303 RMK A01 T00490020  RH  082%=      5-min Rain = 0
KOD1 090444Z 18009KT 05/02 A303 RMK A01 T00500021  RH  082%=      5-min Rain = 0
KOD1 090445Z 18008KT 05/02 A303 RMK A01 T00500020  RH  081%=      5-min Rain = 0
KOD1 090446Z 18009KT 05/02 A303 RMK A01 T00490020  RH  082%=      5-min Rain = 0
KOD1 090447Z 18009KT 05/02 A303 RMK A01 T00490020  RH  082%=      5-min Rain = 0
KOD1 090448Z 18009KT 05/02 A303 RMK A01 T00490021  RH  082%=      5-min Rain = 0
KOD1 090449Z 18009KT 05/02 A303 RMK A01 T00500020  RH  081%=      5-min Rain = 0
KOD1 090450Z 18008KT 05/02 A303 RMK A01 T00500021  RH  081%=      5-min Rain = 0
KOD1 090451Z 18009KT 05/02 A303 RMK A01 T00500020  RH  081%=      5-min Rain = 0
KOD1 090452Z 18009KT 05/02 A303 RMK A01 T00500021  RH  082%=      5-min Rain = 0
KOD1 090453Z 18009KT 05/02 A303 RMK A01 T00500021  RH  082%=      5-min Rain = 0
KOD1 090454Z 18009KT 05/02 A303 RMK A01 T00500021  RH  081%=      5-min Rain = 0
KOD1 090455Z 18008KT 05/02 A303 RMK A01 T00500021  RH  081%=      5-min Rain = 0
KOD1 090456Z 18008KT 05/02 A303 RMK A01 T00500022  RH  082%=      5-min Rain = 0
KOD1 090457Z 18009KT 05/02 A303 RMK A01 T00510022  RH  081%=      5-min Rain = 0
KOD1 090458Z 18009KT 05/02 A3029 RMK A01 T00510022  RH  081%=      5-min Rain = 0
KOD1 090459Z 18009KT 05/02 A3029 RMK A01 T00510021  RH  081%=      5-min Rain = 0
KOD1 090500Z 18009KT 05/02 A3029 RMK A01 T00510021  RH  081%=      5-min Rain = 0
KOD1 090501Z 18009KT 05/02 A3029 RMK A01 T00510021  RH  081%=      5-min Rain = 0
KOD1 090502Z 19008KT 05/02 A3029 RMK A01 T00510021  RH  081%=      5-min Rain = 0
KOD1 090503Z 19008KT 05/02 A3029 RMK A01 T00510021  RH  081%=      5-min Rain = 0
KOD1 090504Z 19008KT 05/02 A3029 RMK A01 T00500021  RH  081%=      5-min Rain = 0
KOD1 090505Z 19009KT 05/02 A3029 RMK A01 T00510022  RH  082%=      5-min Rain = 0
KOD1 090506Z 18008KT 05/02 A3029 RMK A01 T00520022  RH  081%=      5-min Rain = 0
KOD1 090507Z 19008KT 05/02 A3029 RMK A01 T00520022  RH  081%=      5-min Rain = 0
KOD1 090508Z 19008KT 05/02 A3029 RMK A01 T00510022  RH  081%=      5-min Rain = 0
KOD1 090509Z 19008KT 05/02 A3029 RMK A01 T00510022  RH  081%=      5-min Rain = 0
KOD1 090510Z 19009KT 05/02 A3029 RMK A01 T00510022  RH  082%=      5-min Rain = 0
KOD1 090511Z 19008KT 05/02 A3029 RMK A01 T00520022  RH  081%=      5-min Rain = 0
KOD1 090512Z 19008KT 05/02 A3029 RMK A01 T00520022  RH  081%=      5-min Rain = 0
KOD1 090513Z 19008KT 05/02 A3029 RMK A01 T00510022  RH  081%=      5-min Rain = 0
KOD1 090514Z 19008KT 05/02 A3029 RMK A01 T00510022  RH  081%=      5-min Rain = 0
KOD1 090515Z 19007KT 05/02 A3029 RMK A01 T00520022  RH  081%=      5-min Rain = 0
KOD1 090516Z 19008KT 05/02 A3029 RMK A01 T00520022  RH  081%=      5-min Rain = 0
KOD1 090517Z 19008KT 05/02 A3029 RMK A01 T00510022  RH  081%=      5-min Rain = 0
KOD1 090518Z 19008KT 05/02 A3029 RMK A01 T00510022  RH  082%=      5-min Rain = 0
KOD1 090519Z 19009KT 05/02 A3029 RMK A01 T00510023  RH  082%=      5-min Rain = 0
KOD1 090520Z 19008KT 05/02 A3029 RMK A01 T00520023  RH  082%=      5-min Rain = 0
KOD1 090521Z 19008KT 05/02 A3029 RMK A01 T00530023  RH  081%=      5-min Rain = 0
KOD1 090522Z 19008KT 05/02 A3029 RMK A01 T00540023  RH  081%=      5-min Rain = 0
KOD1 090523Z 19008KT 05/02 A3029 RMK A01 T00530023  RH  081%=      5-min Rain = 0
KOD1 090524Z 19009KT 05/02 A3029 RMK A01 T00530023  RH  081%=      5-min Rain = 0
KOD1 090525Z 19007KT 05/02 A3029 RMK A01 T00540024  RH  081%=      5-min Rain = 0
KOD1 090526Z 19008KT 05/02 A3029 RMK A01 T00540022  RH  080%=      5-min Rain = 0
KOD1 090527Z 19009KT 05/02 A3029 RMK A01 T00530023  RH  081%=      5-min Rain = 0
KOD1 090528Z 19009KT 05/02 A3029 RMK A01 T00540024  RH  081%=      5-min Rain = 0
KOD1 090529Z 19007KT 05/02 A3029 RMK A01 T00540023  RH  081%=      5-min Rain = 0
KOD1 090530Z 19007KT 05/02 A3029 RMK A01 T00530023  RH  081%=      5-min Rain = 0
KOD1 090531Z 19007KT 05/02 A3029 RMK A01 T00530023  RH  081%=      5-min Rain = 0
KOD1 090532Z 19007KT 05/02 A3029 RMK A01 T00530023  RH  081%=      5-min Rain = 0
KOD1 090533Z 19009KT 05/02 A3029 RMK A01 T00530023  RH  081%=      5-min Rain = 0
KOD1 090534Z 18007KT 05/02 A3028 RMK A01 T00540024  RH  081%=      5-min Rain = 0
KOD1 090535Z 19008KT 05/02 A3028 RMK A01 T00530023  RH  081%=      5-min Rain = 0
KOD1 090536Z 19007KT 05/02 A3028 RMK A01 T00530023  RH  081%=      5-min Rain = 0
KOD1 090537Z 19007KT 05/02 A3028 RMK A01 T00520022  RH  081%=      5-min Rain = 0
KOD1 090538Z 19008KT 05/02 A3028 RMK A01 T00510023  RH  082%=      5-min Rain = 0
KOD1 090539Z 19007KT 05/02 A3028 RMK A01 T00510024  RH  082%=      5-min Rain = 0
KOD1 090540Z 19008KT 05/02 A3028 RMK A01 T00520024  RH  082%=      5-min Rain = 0
KOD1 090541Z 19007KT 05/02 A3028 RMK A01 T00530024  RH  082%=      5-min Rain = 0
KOD1 090542Z 18007KT 05/02 A3028 RMK A01 T00530024  RH  081%=      5-min Rain = 0
KOD1 090543Z 19007KT 05/02 A3028 RMK A01 T00520023  RH  081%=      5-min Rain = 0
KOD1 090544Z 19007KT 05/02 A3028 RMK A01 T00520023  RH  082%=      5-min Rain = 0
KOD1 090545Z 19007KT 05/02 A3028 RMK A01 T00510023  RH  082%=      5-min Rain = 0
KOD1 090546Z 19008KT 05/02 A3028 RMK A01 T00510023  RH  083%=      5-min Rain = 0
KOD1 090547Z 19009KT 05/03 A3028 RMK A01 T00510025  RH  083%=      5-min Rain = 0
KOD1 090548Z 19008KT 05/03 A3028 RMK A01 T00530025  RH  082%=      5-min Rain = 0
KOD1 090549Z 19008KT 05/03 A3028 RMK A01 T00530025  RH  082%=      5-min Rain = 0
KOD1 090550Z 19008KT 05/02 A3028 RMK A01 T00530024  RH  082%=      5-min Rain = 0
KOD1 090551Z 19008KT 05/03 A3028 RMK A01 T00530025  RH  082%=      5-min Rain = 0
KOD1 090552Z 18008KT 05/02 A3028 RMK A01 T00530024  RH  082%=      5-min Rain = 0
KOD1 090553Z 18008KT 05/02 A3028 RMK A01 T00520023  RH  082%=      5-min Rain = 0
KOD1 090554Z 18008KT 05/02 A3028 RMK A01 T00500023  RH  083%=      5-min Rain = 0
KOD1 090555Z 18008KT 05/02 A3028 RMK A01 T00500024  RH  083%=      5-min Rain = 0
KOD1 090556Z 18009KT 05/02 A3028 RMK A01 T00500024  RH  083%=      5-min Rain = 0
KOD1 090557Z 18008KT 05/02 A3028 RMK A01 T00500024  RH  083%=      5-min Rain = 0
KOD1 090558Z 18008KT 05/02 A3028 RMK A01 T00500024  RH  083%=      5-min Rain = 0
KOD1 090559Z 18008KT 05/02 A3028 RMK A01 T00500024  RH  083%=      5-min Rain = 0

Page generated in 0.0853 seconds.